Time,TemperatureF,DewpointF,PressureIn,WindDirection,WindDirectionDegrees,WindSpeedMPH,WindSpeedGustMPH,Humidity,HourlyPrecipIn,Conditions,Clouds,dailyrainin,SoftwareType,DateUTC
2013-02-18 00:01:00,30.7,5.1,28.91,SSW,200,0.0,0.0,33,0.00,,---,0.00,VWS V14.01,2013-02-18 06:01:00,
2013-02-18 00:06:00,30.7,5.1,28.91,SSW,197,0.0,0.0,33,0.00,,---,0.00,VWS V14.01,2013-02-18 06:06:00,
2013-02-18 00:11:00,30.9,5.2,28.91,SSW,198,0.0,0.0,33,0.00,,---,0.00,VWS V14.01,2013-02-18 06:11:00,
2013-02-18 00:16:00,30.9,5.2,28.91,SSW,197,0.0,0.0,33,0.00,,---,0.00,VWS V14.01,2013-02-18 06:16:00,
2013-02-18 00:17:00,30.9,5.2,28.91,SSW,197,0.0,0.0,33,0.00,,---,0.00,VWS V14.01,2013-02-18 06:17:00,
2013-02-18 00:21:00,31.1,5.4,28.91,SSW,197,0.0,0.0,33,0.00,,---,0.00,VWS V14.01,2013-02-18 06:21:00,
2013-02-18 00:22:00,31.1,5.4,28.91,SSW,197,0.0,0.0,33,0.00,,---,0.00,VWS V14.01,2013-02-18 06:22:00,
2013-02-18 00:26:00,31.3,4.9,28.88,SSW,197,0.0,0.0,32,0.00,,---,0.00,VWS V14.01,2013-02-18 06:26:00,
2013-02-18 00:27:00,31.3,4.9,28.88,SSW,197,0.0,0.0,32,0.00,,---,0.00,VWS V14.01,2013-02-18 06:27:00,
2013-02-18 00:31:00,31.3,4.9,28.88,SSW,197,0.0,0.0,32,0.00,,---,0.00,VWS V14.01,2013-02-18 06:31:00,
2013-02-18 00:32:00,31.3,4.9,28.88,SSW,197,0.0,0.0,32,0.00,,---,0.00,VWS V14.01,2013-02-18 06:32:00,
2013-02-18 00:36:00,31.1,4.7,28.88,SSW,197,0.0,0.0,32,0.00,,---,0.00,VWS V14.01,2013-02-18 06:36:00,
2013-02-18 00:37:00,31.1,4.7,28.88,SSW,197,0.0,0.0,32,0.00,,---,0.00,VWS V14.01,2013-02-18 06:37:00,
2013-02-18 00:41:00,31.1,4.7,28.91,SSW,197,0.0,0.0,32,0.00,,---,0.00,VWS V14.01,2013-02-18 06:41:00,
2013-02-18 00:42:00,31.1,4.7,28.91,SSW,197,0.0,0.0,32,0.00,,---,0.00,VWS V14.01,2013-02-18 06:42:00,
2013-02-18 00:46:00,30.7,4.4,28.91,SSW,197,0.0,0.0,32,0.00,,---,0.00,VWS V14.01,2013-02-18 06:46:00,
2013-02-18 00:47:00,30.4,4.1,28.91,SSW,197,0.0,0.0,32,0.00,,---,0.00,VWS V14.01,2013-02-18 06:47:00,
2013-02-18 00:52:00,30.2,4.6,28.91,SSW,197,0.0,0.0,33,0.00,,---,0.00,VWS V14.01,2013-02-18 06:52:00,
2013-02-18 00:57:00,30.0,4.4,28.91,SSW,197,0.0,0.0,33,0.00,,---,0.00,VWS V14.01,2013-02-18 06:57:00,
2013-02-18 01:02:00,29.8,4.9,28.91,SSW,197,0.0,0.0,34,0.00,,---,0.00,VWS V14.01,2013-02-18 07:02:00,
2013-02-18 01:07:00,29.8,5.5,28.91,SSW,197,0.0,0.0,35,0.00,,---,0.00,VWS V14.01,2013-02-18 07:07:00,
2013-02-18 01:12:00,29.7,6.0,28.88,SSW,197,0.0,0.0,36,0.00,,---,0.00,VWS V14.01,2013-02-18 07:12:00,
2013-02-18 01:13:00,29.7,6.0,28.88,SSW,197,0.0,0.0,36,0.00,,---,0.00,VWS V14.01,2013-02-18 07:13:00,
2013-02-18 01:17:00,29.7,6.6,28.88,SSW,197,0.0,0.0,37,0.00,,---,0.00,VWS V14.01,2013-02-18 07:17:00,
2013-02-18 01:18:00,29.5,6.4,28.88,SSW,197,0.0,0.0,37,0.00,,---,0.00,VWS V14.01,2013-02-18 07:18:00,
2013-02-18 01:22:00,29.5,7.0,28.88,SSW,197,0.0,0.0,38,0.00,,---,0.00,VWS V14.01,2013-02-18 07:22:00,
2013-02-18 01:23:00,29.5,7.0,28.88,SSW,197,0.0,0.0,38,0.00,,---,0.00,VWS V14.01,2013-02-18 07:23:00,
2013-02-18 01:27:00,29.3,6.9,28.88,SSW,197,0.0,0.0,38,0.00,,---,0.00,VWS V14.01,2013-02-18 07:27:00,
2013-02-18 01:28:00,29.3,6.9,28.88,SSW,197,0.0,0.0,38,0.00,,---,0.00,VWS V14.01,2013-02-18 07:28:00,
2013-02-18 01:32:00,29.3,8.0,28.88,SSW,197,0.0,0.0,40,0.00,,---,0.00,VWS V14.01,2013-02-18 07:32:00,
2013-02-18 01:33:00,29.3,8.0,28.88,SSW,197,0.0,0.0,40,0.00,,---,0.00,VWS V14.01,2013-02-18 07:33:00,
2013-02-18 01:38:00,29.5,8.1,28.88,SSW,197,0.0,0.0,40,0.00,,---,0.00,VWS V14.01,2013-02-18 07:38:00,
2013-02-18 01:43:00,29.5,7.6,28.88,SSW,197,0.0,0.0,39,0.00,,---,0.00,VWS V14.01,2013-02-18 07:43:00,
2013-02-18 01:48:00,29.5,7.0,28.88,SSW,197,0.0,0.0,38,0.00,,---,0.00,VWS V14.01,2013-02-18 07:48:00,
2013-02-18 01:53:00,29.5,7.0,28.88,SSW,195,0.0,0.0,38,0.00,,---,0.00,VWS V14.01,2013-02-18 07:53:00,
2013-02-18 01:54:00,29.5,7.0,28.88,SSW,195,0.0,0.0,38,0.00,,---,0.00,VWS V14.01,2013-02-18 07:54:00,
2013-02-18 01:58:00,29.5,6.4,28.88,SSW,195,0.0,0.0,37,0.00,,---,0.00,VWS V14.01,2013-02-18 07:58:00,
2013-02-18 01:59:00,29.5,6.4,28.88,SSW,195,0.0,0.0,37,0.00,,---,0.00,VWS V14.01,2013-02-18 07:59:00,
2013-02-18 02:03:00,29.5,6.4,28.88,South,184,0.0,0.0,37,0.00,,---,0.00,VWS V14.01,2013-02-18 08:03:00,
2013-02-18 02:04:00,29.5,6.4,28.88,South,184,0.0,0.0,37,0.00,,---,0.00,VWS V14.01,2013-02-18 08:04:00,
2013-02-18 02:08:00,29.5,5.8,28.88,South,178,3.1,3.1,36,0.00,,---,0.00,VWS V14.01,2013-02-18 08:08:00,
2013-02-18 02:09:00,29.5,5.8,28.88,South,183,0.0,3.1,36,0.00,,---,0.00,VWS V14.01,2013-02-18 08:09:00,
2013-02-18 02:13:00,29.8,5.5,28.88,South,185,0.0,0.0,35,0.00,,---,0.00,VWS V14.01,2013-02-18 08:13:00,
2013-02-18 02:14:00,29.8,5.5,28.88,South,185,0.0,0.0,35,0.00,,---,0.00,VWS V14.01,2013-02-18 08:14:00,
2013-02-18 02:19:00,30.0,5.7,28.88,South,183,2.2,2.2,35,0.00,,---,0.00,VWS V14.01,2013-02-18 08:19:00,
2013-02-18 02:24:00,30.2,5.2,28.88,South,183,0.0,0.0,34,0.00,,---,0.00,VWS V14.01,2013-02-18 08:24:00,
2013-02-18 02:29:00,30.4,4.7,28.88,South,183,0.0,0.0,33,0.00,,---,0.00,VWS V14.01,2013-02-18 08:29:00,
2013-02-18 02:34:00,30.6,4.9,28.88,South,183,0.0,0.0,33,0.00,,---,0.00,VWS V14.01,2013-02-18 08:34:00,
2013-02-18 02:39:00,30.7,4.4,28.88,South,183,0.0,0.0,32,0.00,,---,0.00,VWS V14.01,2013-02-18 08:39:00,
2013-02-18 02:40:00,30.7,4.4,28.88,South,183,0.0,0.0,32,0.00,,---,0.00,VWS V14.01,2013-02-18 08:40:00,
2013-02-18 02:44:00,30.7,4.4,28.88,South,183,2.2,2.2,32,0.00,,---,0.00,VWS V14.01,2013-02-18 08:44:00,
2013-02-18 02:45:00,30.7,4.4,28.88,South,183,2.2,2.2,32,0.00,,---,0.00,VWS V14.01,2013-02-18 08:45:00,
2013-02-18 02:49:00,31.1,4.7,28.88,South,183,2.7,2.7,32,0.00,,---,0.00,VWS V14.01,2013-02-18 08:49:00,
2013-02-18 02:50:00,31.1,4.7,28.88,South,181,3.1,3.1,32,0.00,,---,0.00,VWS V14.01,2013-02-18 08:50:00,
2013-02-18 02:54:00,31.1,4.0,28.88,South,178,3.1,3.1,31,0.00,,---,0.00,VWS V14.01,2013-02-18 08:54:00,
2013-02-18 02:55:00,31.1,4.0,28.88,South,178,3.1,3.1,31,0.00,,---,0.00,VWS V14.01,2013-02-18 08:55:00,
2013-02-18 02:59:00,31.5,4.3,28.88,South,179,3.1,3.1,31,0.00,,---,0.00,VWS V14.01,2013-02-18 08:59:00,
2013-02-18 03:00:00,31.5,4.3,28.88,South,176,0.0,3.1,31,0.00,,---,0.00,VWS V14.01,2013-02-18 09:00:00,
2013-02-18 03:04:00,31.5,4.3,28.88,South,176,3.1,3.1,31,0.00,,---,0.00,VWS V14.01,2013-02-18 09:04:00,
2013-02-18 03:05:00,31.5,4.3,28.88,South,177,2.7,3.1,31,0.00,,---,0.00,VWS V14.01,2013-02-18 09:05:00,
2013-02-18 03:06:00,31.5,4.3,28.88,South,177,2.7,2.7,31,0.00,,---,0.00,VWS V14.01,2013-02-18 09:06:00,
2013-02-18 03:09:00,31.5,4.3,28.88,South,176,0.0,0.0,31,0.00,,---,0.00,VWS V14.01,2013-02-18 09:09:00,
2013-02-18 03:10:00,31.5,4.3,28.88,South,176,0.0,0.0,31,0.00,,---,0.00,VWS V14.01,2013-02-18 09:10:00,
2013-02-18 03:11:00,31.5,4.3,28.88,South,176,2.2,2.2,31,0.00,,---,0.00,VWS V14.01,2013-02-18 09:11:00,
2013-02-18 03:14:00,31.5,4.3,28.88,South,176,2.2,2.2,31,0.00,,---,0.00,VWS V14.01,2013-02-18 09:14:00,
2013-02-18 03:15:00,31.6,4.5,28.88,South,176,0.0,0.0,31,0.00,,---,0.00,VWS V14.01,2013-02-18 09:15:00,
2013-02-18 03:16:00,31.6,4.5,28.88,South,176,2.7,2.7,31,0.00,,---,0.00,VWS V14.01,2013-02-18 09:16:00,
2013-02-18 03:19:00,31.6,4.5,28.88,South,176,2.2,2.2,31,0.00,,---,0.00,VWS V14.01,2013-02-18 09:19:00,
2013-02-18 03:20:00,31.6,4.5,28.88,South,176,0.0,2.2,31,0.00,,---,0.00,VWS V14.01,2013-02-18 09:20:00,
2013-02-18 03:21:00,31.6,4.5,28.88,South,176,0.0,2.2,31,0.00,,---,0.00,VWS V14.01,2013-02-18 09:21:00,
2013-02-18 03:25:00,31.6,4.5,28.88,South,176,2.2,2.2,31,0.00,,---,0.00,VWS V14.01,2013-02-18 09:25:00,
2013-02-18 03:26:00,31.6,4.5,28.88,South,176,2.2,2.2,31,0.00,,---,0.00,VWS V14.01,2013-02-18 09:26:00,
2013-02-18 03:30:00,31.6,4.5,28.88,South,176,0.0,0.0,31,0.00,,---,0.00,VWS V14.01,2013-02-18 09:30:00,
2013-02-18 03:31:00,31.6,4.5,28.88,South,176,0.0,0.0,31,0.00,,---,0.00,VWS V14.01,2013-02-18 09:31:00,
2013-02-18 03:35:00,31.8,4.6,28.88,South,177,0.0,0.0,31,0.00,,---,0.00,VWS V14.01,2013-02-18 09:35:00,
2013-02-18 03:36:00,31.8,4.6,28.88,South,179,2.2,2.2,31,0.00,,---,0.00,VWS V14.01,2013-02-18 09:36:00,
2013-02-18 03:40:00,32.2,5.0,28.88,South,179,0.0,2.7,31,0.00,,---,0.00,VWS V14.01,2013-02-18 09:40:00,
2013-02-18 03:41:00,32.2,5.0,28.88,South,179,0.0,0.0,31,0.00,,---,0.00,VWS V14.01,2013-02-18 09:41:00,
2013-02-18 03:45:00,32.2,5.0,28.88,South,179,0.0,0.0,31,0.00,,---,0.00,VWS V14.01,2013-02-18 09:45:00,
2013-02-18 03:46:00,32.2,5.0,28.88,South,179,2.2,2.2,31,0.00,,---,0.00,VWS V14.01,2013-02-18 09:46:00,
2013-02-18 03:50:00,32.4,5.1,28.88,SSW,192,3.6,3.6,31,0.00,,---,0.00,VWS V14.01,2013-02-18 09:50:00,
2013-02-18 03:52:00,32.4,5.1,28.88,South,183,2.7,2.7,31,0.00,,---,0.00,VWS V14.01,2013-02-18 09:52:00,
2013-02-18 03:55:00,32.5,5.3,28.88,South,176,0.0,3.1,31,0.00,,---,0.00,VWS V14.01,2013-02-18 09:55:00,
2013-02-18 03:57:00,32.5,5.3,28.88,South,177,0.0,0.0,31,0.00,,---,0.00,VWS V14.01,2013-02-18 09:57:00,
2013-02-18 04:00:00,32.5,4.6,28.88,South,181,3.1,3.1,30,0.00,,---,0.00,VWS V14.01,2013-02-18 10:00:00,
2013-02-18 04:01:00,32.5,4.6,28.88,South,181,3.1,3.1,30,0.00,,---,0.00,VWS V14.01,2013-02-18 10:01:00,
2013-02-18 04:02:00,32.5,4.6,28.88,South,180,2.2,3.1,30,0.00,,---,0.00,VWS V14.01,2013-02-18 10:02:00,
2013-02-18 04:05:00,32.5,4.6,28.88,South,177,0.0,0.0,30,0.00,,---,0.00,VWS V14.01,2013-02-18 10:05:00,
2013-02-18 04:06:00,32.5,4.6,28.88,South,177,2.2,2.7,30,0.00,,---,0.00,VWS V14.01,2013-02-18 10:06:00,
2013-02-18 04:07:00,32.5,4.6,28.88,South,176,2.7,2.7,30,0.00,,---,0.00,VWS V14.01,2013-02-18 10:07:00,
2013-02-18 04:10:00,32.5,4.6,28.88,South,176,2.7,2.7,30,0.00,,---,0.00,VWS V14.01,2013-02-18 10:10:00,
2013-02-18 04:11:00,32.5,4.6,28.88,South,176,2.7,2.7,30,0.00,,---,0.00,VWS V14.01,2013-02-18 10:11:00,
2013-02-18 04:12:00,32.5,4.6,28.88,South,186,3.1,3.1,30,0.00,,---,0.00,VWS V14.01,2013-02-18 10:12:00,
2013-02-18 04:15:00,32.5,4.6,28.88,South,178,2.2,2.2,30,0.00,,---,0.00,VWS V14.01,2013-02-18 10:15:00,
2013-02-18 04:16:00,32.5,4.6,28.88,South,179,0.0,2.2,30,0.00,,---,0.00,VWS V14.01,2013-02-18 10:16:00,
2013-02-18 04:17:00,32.5,4.6,28.88,South,179,0.0,0.0,30,0.00,,---,0.00,VWS V14.01,2013-02-18 10:17:00,
2013-02-18 04:20:00,32.7,4.7,28.88,South,173,0.0,0.0,30,0.00,,---,0.00,VWS V14.01,2013-02-18 10:20:00,
2013-02-18 04:21:00,32.7,4.7,28.88,South,173,0.0,0.0,30,0.00,,---,0.00,VWS V14.01,2013-02-18 10:21:00,
2013-02-18 04:22:00,32.7,4.7,28.88,South,173,0.0,0.0,30,0.00,,---,0.00,VWS V14.01,2013-02-18 10:22:00,
2013-02-18 04:25:00,32.7,4.7,28.91,South,173,0.0,0.0,30,0.00,,---,0.00,VWS V14.01,2013-02-18 10:25:00,
2013-02-18 04:26:00,32.7,4.7,28.91,South,173,0.0,0.0,30,0.00,,---,0.00,VWS V14.01,2013-02-18 10:26:00,
2013-02-18 04:27:00,32.5,4.6,28.91,South,173,0.0,0.0,30,0.00,,---,0.00,VWS V14.01,2013-02-18 10:27:00,
2013-02-18 04:30:00,32.5,4.6,28.91,South,173,0.0,0.0,30,0.00,,---,0.00,VWS V14.01,2013-02-18 10:30:00,
2013-02-18 04:31:00,32.5,4.6,28.91,South,173,0.0,0.0,30,0.00,,---,0.00,VWS V14.01,2013-02-18 10:31:00,
2013-02-18 04:32:00,32.5,4.6,28.91,South,173,0.0,0.0,30,0.00,,---,0.00,VWS V14.01,2013-02-18 10:32:00,
2013-02-18 04:35:00,32.2,4.2,28.91,South,183,0.0,0.0,30,0.00,,---,0.00,VWS V14.01,2013-02-18 10:35:00,
2013-02-18 04:36:00,32.2,4.2,28.91,South,183,0.0,0.0,30,0.00,,---,0.00,VWS V14.01,2013-02-18 10:36:00,
2013-02-18 04:37:00,32.2,4.2,28.91,South,183,0.0,0.0,30,0.00,,---,0.00,VWS V14.01,2013-02-18 10:37:00,
2013-02-18 04:41:00,32.2,4.2,28.91,South,190,0.0,0.0,30,0.00,,---,0.00,VWS V14.01,2013-02-18 10:41:00,
2013-02-18 04:42:00,32.2,4.2,28.91,South,190,0.0,0.0,30,0.00,,---,0.00,VWS V14.01,2013-02-18 10:42:00,
2013-02-18 04:46:00,32.2,4.2,28.91,South,189,0.0,0.0,30,0.00,,---,0.00,VWS V14.01,2013-02-18 10:46:00,
2013-02-18 04:47:00,32.2,4.2,28.91,South,169,3.6,3.6,30,0.00,,---,0.00,VWS V14.01,2013-02-18 10:47:00,
2013-02-18 04:51:00,32.0,4.1,28.91,South,183,2.2,2.2,30,0.00,,---,0.00,VWS V14.01,2013-02-18 10:51:00,
2013-02-18 04:52:00,32.0,4.1,28.91,South,183,2.2,2.2,30,0.00,,---,0.00,VWS V14.01,2013-02-18 10:52:00,
2013-02-18 04:53:00,32.0,4.1,28.91,South,183,0.0,0.0,30,0.00,,---,0.00,VWS V14.01,2013-02-18 10:53:00,
2013-02-18 04:56:00,31.8,3.9,28.91,South,183,0.0,0.0,30,0.00,,---,0.00,VWS V14.01,2013-02-18 10:56:00,
2013-02-18 04:57:00,31.8,3.9,28.91,South,183,0.0,0.0,30,0.00,,---,0.00,VWS V14.01,2013-02-18 10:57:00,
2013-02-18 04:58:00,31.8,3.9,28.91,South,191,2.2,2.7,30,0.00,,---,0.00,VWS V14.01,2013-02-18 10:58:00,
2013-02-18 05:01:00,31.8,3.9,28.91,SSE,165,2.7,2.7,30,0.00,,---,0.00,VWS V14.01,2013-02-18 11:01:00,
2013-02-18 05:02:00,31.8,3.9,28.91,SSE,165,0.0,2.7,30,0.00,,---,0.00,VWS V14.01,2013-02-18 11:02:00,
2013-02-18 05:03:00,31.8,3.9,28.91,SSE,165,0.0,0.0,30,0.00,,---,0.00,VWS V14.01,2013-02-18 11:03:00,
2013-02-18 05:06:00,32.2,4.2,28.91,SSE,165,0.0,0.0,30,0.00,,---,0.00,VWS V14.01,2013-02-18 11:06:00,
2013-02-18 05:07:00,32.2,4.2,28.91,South,173,0.0,3.6,30,0.00,,---,0.00,VWS V14.01,2013-02-18 11:07:00,
2013-02-18 05:08:00,32.2,4.2,28.91,South,173,0.0,3.6,30,0.00,,---,0.00,VWS V14.01,2013-02-18 11:08:00,
2013-02-18 05:11:00,32.0,4.1,28.91,South,174,0.0,0.0,30,0.00,,---,0.00,VWS V14.01,2013-02-18 11:11:00,
2013-02-18 05:13:00,32.0,4.1,28.91,South,174,0.0,0.0,30,0.00,,---,0.00,VWS V14.01,2013-02-18 11:13:00,
2013-02-18 05:16:00,32.0,4.1,28.91,South,174,0.0,0.0,30,0.00,,---,0.00,VWS V14.01,2013-02-18 11:16:00,
2013-02-18 05:18:00,32.0,4.1,28.91,South,174,0.0,0.0,30,0.00,,---,0.00,VWS V14.01,2013-02-18 11:18:00,
2013-02-18 05:21:00,31.8,3.9,28.91,South,174,0.0,0.0,30,0.00,,---,0.00,VWS V14.01,2013-02-18 11:21:00,
2013-02-18 05:23:00,31.8,3.9,28.91,South,174,0.0,0.0,30,0.00,,---,0.00,VWS V14.01,2013-02-18 11:23:00,
2013-02-18 05:26:00,31.8,4.6,28.91,South,174,0.0,0.0,31,0.00,,---,0.00,VWS V14.01,2013-02-18 11:26:00,
2013-02-18 05:28:00,31.6,4.5,28.91,South,174,0.0,0.0,31,0.00,,---,0.00,VWS V14.01,2013-02-18 11:28:00,
2013-02-18 05:31:00,31.6,4.5,28.91,South,174,0.0,0.0,31,0.00,,---,0.00,VWS V14.01,2013-02-18 11:31:00,
2013-02-18 05:33:00,31.5,4.3,28.91,South,174,0.0,0.0,31,0.00,,---,0.00,VWS V14.01,2013-02-18 11:33:00,
2013-02-18 05:37:00,31.3,4.2,28.91,South,174,2.7,2.7,31,0.00,,---,0.00,VWS V14.01,2013-02-18 11:37:00,
2013-02-18 05:38:00,31.3,4.2,28.91,South,174,2.2,2.7,31,0.00,,---,0.00,VWS V14.01,2013-02-18 11:38:00,
2013-02-18 05:39:00,31.3,4.2,28.91,South,174,0.0,2.7,31,0.00,,---,0.00,VWS V14.01,2013-02-18 11:39:00,
2013-02-18 05:43:00,31.1,4.0,28.91,South,174,0.0,0.0,31,0.00,,---,0.00,VWS V14.01,2013-02-18 11:43:00,
2013-02-18 05:44:00,31.1,4.0,28.91,South,174,0.0,0.0,31,0.00,,---,0.00,VWS V14.01,2013-02-18 11:44:00,
2013-02-18 05:48:00,31.1,4.0,28.91,South,174,2.2,2.2,31,0.00,,---,0.00,VWS V14.01,2013-02-18 11:48:00,
2013-02-18 05:49:00,31.1,4.0,28.91,South,174,0.0,2.2,31,0.00,,---,0.00,VWS V14.01,2013-02-18 11:49:00,
2013-02-18 05:53:00,30.9,3.8,28.91,South,174,2.7,2.7,31,0.00,,---,0.00,VWS V14.01,2013-02-18 11:53:00,
2013-02-18 05:54:00,30.7,3.7,28.91,South,173,2.7,2.7,31,0.00,,---,0.00,VWS V14.01,2013-02-18 11:54:00,
2013-02-18 05:58:00,30.7,3.7,28.91,South,174,2.7,2.7,31,0.00,,---,0.00,VWS V14.01,2013-02-18 11:58:00,
2013-02-18 05:59:00,30.7,3.7,28.91,South,174,0.0,0.0,31,0.00,,---,0.00,VWS V14.01,2013-02-18 11:59:00,
2013-02-18 06:03:00,30.6,3.5,28.91,South,174,0.0,0.0,31,0.00,,---,0.00,VWS V14.01,2013-02-18 12:03:00,
2013-02-18 06:04:00,30.6,3.5,28.91,South,182,3.1,3.1,31,0.00,,---,0.00,VWS V14.01,2013-02-18 12:04:00,
2013-02-18 06:08:00,30.6,4.2,28.91,South,181,2.2,2.2,32,0.00,,---,0.00,VWS V14.01,2013-02-18 12:08:00,
2013-02-18 06:09:00,30.6,4.2,28.91,South,181,2.2,2.2,32,0.00,,---,0.00,VWS V14.01,2013-02-18 12:09:00,
2013-02-18 06:13:00,30.6,4.2,28.91,South,175,2.2,2.2,32,0.00,,---,0.00,VWS V14.01,2013-02-18 12:13:00,
2013-02-18 06:14:00,30.6,4.2,28.91,South,175,2.2,2.2,32,0.00,,---,0.00,VWS V14.01,2013-02-18 12:14:00,
2013-02-18 06:18:00,30.6,4.2,28.91,South,184,2.2,3.6,32,0.00,,---,0.00,VWS V14.01,2013-02-18 12:18:00,
2013-02-18 06:20:00,30.6,4.2,28.91,South,184,2.7,2.7,32,0.00,,---,0.00,VWS V14.01,2013-02-18 12:20:00,
2013-02-18 06:23:00,30.9,4.5,28.91,SSE,163,3.1,3.6,32,0.00,,---,0.00,VWS V14.01,2013-02-18 12:23:00,
2013-02-18 06:25:00,31.1,4.0,28.91,South,182,5.4,5.4,31,0.00,,---,0.00,VWS V14.01,2013-02-18 12:25:00,
2013-02-18 06:28:00,31.1,4.0,28.91,SSE,165,4.9,4.9,31,0.00,,---,0.00,VWS V14.01,2013-02-18 12:28:00,
2013-02-18 06:29:00,31.1,4.0,28.91,SSE,165,4.9,4.9,31,0.00,,---,0.00,VWS V14.01,2013-02-18 12:29:00,
2013-02-18 06:30:00,31.5,4.3,28.91,SSE,165,4.9,4.9,31,0.00,,---,0.00,VWS V14.01,2013-02-18 12:30:00,
2013-02-18 06:34:00,31.5,4.3,28.91,South,173,4.9,4.9,31,0.00,,---,0.00,VWS V14.01,2013-02-18 12:34:00,
2013-02-18 06:35:00,31.8,4.6,28.91,South,177,3.1,5.4,31,0.00,,---,0.00,VWS V14.01,2013-02-18 12:35:00,
2013-02-18 06:39:00,31.8,4.6,28.91,SSE,168,3.1,3.1,31,0.00,,---,0.00,VWS V14.01,2013-02-18 12:39:00,
2013-02-18 06:40:00,32.2,5.0,28.94,SSE,168,3.1,3.1,31,0.00,,---,0.00,VWS V14.01,2013-02-18 12:40:00,
2013-02-18 06:44:00,32.2,5.0,28.94,SSE,166,4.0,5.4,31,0.00,,---,0.00,VWS V14.01,2013-02-18 12:44:00,
2013-02-18 06:45:00,32.2,5.0,28.94,South,171,2.7,2.7,31,0.00,,---,0.00,VWS V14.01,2013-02-18 12:45:00,
2013-02-18 06:49:00,32.4,5.1,28.94,SSE,168,3.6,3.6,31,0.00,,---,0.00,VWS V14.01,2013-02-18 12:49:00,
2013-02-18 06:50:00,32.4,5.1,28.94,South,187,3.6,3.6,31,0.00,,---,0.00,VWS V14.01,2013-02-18 12:50:00,
2013-02-18 06:54:00,32.5,4.6,28.91,South,186,2.7,2.7,30,0.00,,---,0.00,VWS V14.01,2013-02-18 12:54:00,
2013-02-18 06:55:00,32.7,4.7,28.91,SSE,164,3.6,3.6,30,0.00,,---,0.00,VWS V14.01,2013-02-18 12:55:00,
2013-02-18 06:59:00,32.9,4.9,28.91,South,181,5.4,5.4,30,0.00,,---,0.00,VWS V14.01,2013-02-18 12:59:00,
2013-02-18 07:00:00,32.9,4.9,28.91,South,181,3.6,5.4,30,0.00,,---,0.00,VWS V14.01,2013-02-18 13:00:00,
2013-02-18 07:04:00,33.1,5.8,28.91,SSE,162,2.7,2.7,31,0.00,,---,0.00,VWS V14.01,2013-02-18 13:04:00,
2013-02-18 07:05:00,33.1,5.8,28.91,SSE,162,3.1,3.1,31,0.00,,---,0.00,VWS V14.01,2013-02-18 13:05:00,
2013-02-18 07:09:00,33.3,5.9,28.94,SSE,162,2.7,2.7,31,0.00,,---,0.00,VWS V14.01,2013-02-18 13:09:00,
2013-02-18 07:10:00,33.3,5.9,28.94,South,170,2.7,4.0,31,0.00,,---,0.00,VWS V14.01,2013-02-18 13:10:00,
2013-02-18 07:14:00,33.4,6.1,28.94,South,170,4.0,4.0,31,0.00,,---,0.00,VWS V14.01,2013-02-18 13:14:00,
2013-02-18 07:16:00,33.8,5.7,28.94,SSE,166,4.0,4.0,30,0.00,,---,0.00,VWS V14.01,2013-02-18 13:16:00,
2013-02-18 07:19:00,33.8,5.7,28.94,South,179,3.1,4.0,30,0.00,,---,0.00,VWS V14.01,2013-02-18 13:19:00,
2013-02-18 07:20:00,33.8,5.7,28.94,South,179,3.1,4.0,30,0.00,,---,0.00,VWS V14.01,2013-02-18 13:20:00,
2013-02-18 07:21:00,33.8,5.7,28.94,South,176,3.1,3.1,30,0.00,,---,0.00,VWS V14.01,2013-02-18 13:21:00,
2013-02-18 07:25:00,35.1,6.8,28.94,SSE,165,3.1,3.1,30,0.00,,---,0.00,VWS V14.01,2013-02-18 13:25:00,
2013-02-18 07:26:00,35.4,7.1,28.94,SSE,166,3.6,3.6,30,0.00,,---,0.00,VWS V14.01,2013-02-18 13:26:00,
2013-02-18 07:30:00,36.1,7.0,28.94,SSE,153,2.7,2.7,29,0.00,,---,0.00,VWS V14.01,2013-02-18 13:30:00,
2013-02-18 07:31:00,36.7,8.2,28.94,SSE,157,0.0,0.0,30,0.00,,---,0.00,VWS V14.01,2013-02-18 13:31:00,
2013-02-18 07:35:00,37.0,7.8,28.94,SSE,163,3.1,4.0,29,0.00,,---,0.00,VWS V14.01,2013-02-18 13:35:00,
2013-02-18 07:36:00,37.6,8.2,28.94,SSE,163,3.1,3.1,29,0.00,,---,0.00,VWS V14.01,2013-02-18 13:36:00,
2013-02-18 07:40:00,38.8,9.3,28.94,South,171,3.1,3.1,29,0.00,,---,0.00,VWS V14.01,2013-02-18 13:40:00,
2013-02-18 07:41:00,38.8,9.3,28.94,South,171,3.1,3.1,29,0.00,,---,0.00,VWS V14.01,2013-02-18 13:41:00,
2013-02-18 07:45:00,39.6,9.2,28.94,SSE,168,3.6,3.6,28,0.00,,---,0.00,VWS V14.01,2013-02-18 13:45:00,
2013-02-18 07:46:00,40.5,8.3,28.94,SSE,165,2.7,2.7,26,0.00,,---,0.00,VWS V14.01,2013-02-18 13:46:00,
2013-02-18 07:50:00,40.5,8.3,28.94,South,171,2.2,4.0,26,0.00,,---,0.00,VWS V14.01,2013-02-18 13:50:00,
2013-02-18 07:51:00,41.4,9.1,28.94,South,171,3.6,3.6,26,0.00,,---,0.00,VWS V14.01,2013-02-18 13:51:00,
2013-02-18 07:55:00,41.9,6.8,28.94,South,177,3.1,3.1,23,0.00,,---,0.00,VWS V14.01,2013-02-18 13:55:00,
2013-02-18 07:56:00,41.9,6.8,28.94,SE,142,6.3,6.3,23,0.00,,---,0.00,VWS V14.01,2013-02-18 13:56:00,
2013-02-18 08:00:00,42.3,7.1,28.94,South,183,4.0,6.3,23,0.00,,---,0.00,VWS V14.01,2013-02-18 14:00:00,
2013-02-18 08:02:00,42.8,7.6,28.94,SE,144,5.4,5.4,23,0.00,,---,0.00,VWS V14.01,2013-02-18 14:02:00,
2013-02-18 08:05:00,43.2,4.8,28.94,SE,136,3.1,3.6,20,0.00,,---,0.00,VWS V14.01,2013-02-18 14:05:00,
2013-02-18 08:07:00,43.3,5.0,28.94,SE,136,3.1,3.1,20,0.00,,---,0.00,VWS V14.01,2013-02-18 14:07:00,
2013-02-18 08:10:00,43.9,5.4,28.94,South,174,4.0,4.5,20,0.00,,---,0.00,VWS V14.01,2013-02-18 14:10:00,
2013-02-18 08:12:00,44.4,5.9,28.94,SSE,167,4.0,4.0,20,0.00,,---,0.00,VWS V14.01,2013-02-18 14:12:00,
2013-02-18 08:15:00,45.1,8.6,28.94,SSE,168,3.1,3.1,22,0.00,,---,0.00,VWS V14.01,2013-02-18 14:15:00,
2013-02-18 08:17:00,45.1,8.6,28.94,South,181,6.3,6.3,22,0.00,,---,0.00,VWS V14.01,2013-02-18 14:17:00,
2013-02-18 08:20:00,45.9,7.1,28.94,SSW,194,8.1,8.1,20,0.00,,---,0.00,VWS V14.01,2013-02-18 14:20:00,
2013-02-18 08:22:00,45.9,7.1,28.94,SSE,160,8.1,8.1,20,0.00,,---,0.00,VWS V14.01,2013-02-18 14:22:00,
2013-02-18 08:25:00,46.2,7.4,28.94,SSE,162,5.8,5.8,20,0.00,,---,0.00,VWS V14.01,2013-02-18 14:25:00,
2013-02-18 08:26:00,46.4,6.4,28.94,SSE,162,5.8,5.8,19,0.00,,---,0.00,VWS V14.01,2013-02-18 14:26:00,
2013-02-18 08:27:00,46.6,6.5,28.94,SSE,154,4.0,4.0,19,0.00,,---,0.00,VWS V14.01,2013-02-18 14:27:00,
2013-02-18 08:30:00,46.6,6.5,28.94,SSE,162,4.0,5.8,19,0.00,,---,0.00,VWS V14.01,2013-02-18 14:30:00,
2013-02-18 08:31:00,46.6,6.5,28.94,SSE,162,4.0,5.8,19,0.00,,---,0.00,VWS V14.01,2013-02-18 14:31:00,
2013-02-18 08:32:00,46.8,6.7,28.94,SSE,162,4.0,4.0,19,0.00,,---,0.00,VWS V14.01,2013-02-18 14:32:00,
2013-02-18 08:35:00,46.6,4.1,28.94,SSE,165,11.0,11.0,17,0.00,,---,0.00,VWS V14.01,2013-02-18 14:35:00,
2013-02-18 08:36:00,46.6,4.1,28.94,SSE,165,11.0,11.0,17,0.00,,---,0.00,VWS V14.01,2013-02-18 14:36:00,
2013-02-18 08:37:00,46.4,4.0,28.94,SSE,160,6.3,6.3,17,0.00,,---,0.00,VWS V14.01,2013-02-18 14:37:00,
2013-02-18 08:40:00,46.9,6.8,28.94,SSE,163,7.6,7.6,19,0.00,,---,0.00,VWS V14.01,2013-02-18 14:40:00,
2013-02-18 08:41:00,47.1,4.6,28.94,SSE,163,7.6,7.6,17,0.00,,---,0.00,VWS V14.01,2013-02-18 14:41:00,
2013-02-18 08:42:00,47.1,4.6,28.94,SSE,168,6.3,6.3,17,0.00,,---,0.00,VWS V14.01,2013-02-18 14:42:00,
2013-02-18 08:45:00,47.1,4.6,28.94,South,188,6.3,8.1,17,0.00,,---,0.00,VWS V14.01,2013-02-18 14:45:00,
2013-02-18 08:46:00,47.3,7.1,28.94,SE,136,5.8,5.8,19,0.00,,---,0.00,VWS V14.01,2013-02-18 14:46:00,
2013-02-18 08:47:00,47.3,7.1,28.94,SE,142,11.0,11.9,19,0.00,,---,0.00,VWS V14.01,2013-02-18 14:47:00,
2013-02-18 08:50:00,47.3,4.7,28.94,SSE,156,6.3,11.0,17,0.00,,---,0.00,VWS V14.01,2013-02-18 14:50:00,
2013-02-18 08:51:00,47.3,4.7,28.94,SSE,156,6.3,6.3,17,0.00,,---,0.00,VWS V14.01,2013-02-18 14:51:00,
2013-02-18 08:52:00,47.3,4.7,28.94,SSE,149,6.3,8.7,17,0.00,,---,0.00,VWS V14.01,2013-02-18 14:52:00,
2013-02-18 08:55:00,47.3,4.7,28.94,South,169,4.0,9.2,17,0.00,,---,0.00,VWS V14.01,2013-02-18 14:55:00,
2013-02-18 08:56:00,47.3,4.7,28.94,SE,140,5.4,6.3,17,0.00,,---,0.00,VWS V14.01,2013-02-18 14:56:00,
2013-02-18 08:57:00,47.3,4.7,28.94,South,170,5.8,5.8,17,0.00,,---,0.00,VWS V14.01,2013-02-18 14:57:00,
2013-02-18 09:00:00,48.4,8.0,28.94,SSE,154,6.3,6.3,19,0.00,,---,0.00,VWS V14.01,2013-02-18 15:00:00,
2013-02-18 09:01:00,48.7,4.6,28.94,SSE,156,5.4,5.4,16,0.00,,---,0.00,VWS V14.01,2013-02-18 15:01:00,
2013-02-18 09:02:00,48.7,4.6,28.94,SSE,163,5.8,5.8,16,0.00,,---,0.00,VWS V14.01,2013-02-18 15:02:00,
2013-02-18 09:05:00,48.6,4.4,28.94,South,185,5.4,5.4,16,0.00,,---,0.00,VWS V14.01,2013-02-18 15:05:00,
2013-02-18 09:06:00,48.6,4.4,28.94,South,184,6.3,6.3,16,0.00,,---,0.00,VWS V14.01,2013-02-18 15:06:00,
2013-02-18 09:07:00,48.6,4.4,28.94,SSE,156,5.4,6.3,16,0.00,,---,0.00,VWS V14.01,2013-02-18 15:07:00,
2013-02-18 09:10:00,48.6,4.4,28.94,SSE,157,10.1,10.1,16,0.00,,---,0.00,VWS V14.01,2013-02-18 15:10:00,
2013-02-18 09:11:00,48.6,4.4,28.94,SSE,157,10.1,10.1,16,0.00,,---,0.00,VWS V14.01,2013-02-18 15:11:00,
2013-02-18 09:13:00,48.4,4.3,28.94,South,174,6.3,10.1,16,0.00,,---,0.00,VWS V14.01,2013-02-18 15:13:00,
2013-02-18 09:15:00,48.2,4.1,28.94,SE,129,5.4,5.4,16,0.00,,---,0.00,VWS V14.01,2013-02-18 15:15:00,
2013-02-18 09:16:00,48.2,4.1,28.94,SE,129,5.4,5.4,16,0.00,,---,0.00,VWS V14.01,2013-02-18 15:16:00,
2013-02-18 09:18:00,48.2,4.1,28.94,South,169,8.3,8.3,16,0.00,,---,0.00,VWS V14.01,2013-02-18 15:18:00,
2013-02-18 09:20:00,48.4,4.3,28.94,SSE,147,5.8,5.8,16,0.00,,---,0.00,VWS V14.01,2013-02-18 15:20:00,
2013-02-18 09:21:00,48.4,4.3,28.94,WNW,293,2.2,5.8,16,0.00,,---,0.00,VWS V14.01,2013-02-18 15:21:00,
2013-02-18 09:23:00,48.4,4.3,28.94,SSE,166,6.7,6.7,16,0.00,,---,0.00,VWS V14.01,2013-02-18 15:23:00,
2013-02-18 09:26:00,48.9,4.7,28.94,SE,130,7.6,7.6,16,0.00,,---,0.00,VWS V14.01,2013-02-18 15:26:00,
2013-02-18 09:28:00,48.9,4.7,28.94,South,186,6.3,6.3,16,0.00,,---,0.00,VWS V14.01,2013-02-18 15:28:00,
2013-02-18 09:31:00,49.3,5.0,28.94,SSE,166,5.8,10.1,16,0.00,,---,0.00,VWS V14.01,2013-02-18 15:31:00,
2013-02-18 09:32:00,49.3,5.0,28.94,SSE,167,6.3,6.3,16,0.00,,---,0.00,VWS V14.01,2013-02-18 15:32:00,
2013-02-18 09:33:00,49.3,5.0,28.94,SSE,167,6.3,6.3,16,0.00,,---,0.00,VWS V14.01,2013-02-18 15:33:00,
2013-02-18 09:36:00,49.6,5.3,28.94,SSE,163,5.8,5.8,16,0.00,,---,0.00,VWS V14.01,2013-02-18 15:36:00,
2013-02-18 09:37:00,50.0,5.6,28.94,South,179,5.4,5.8,16,0.00,,---,0.00,VWS V14.01,2013-02-18 15:37:00,
2013-02-18 09:38:00,50.0,5.6,28.94,SSE,164,6.3,6.3,16,0.00,,---,0.00,VWS V14.01,2013-02-18 15:38:00,
2013-02-18 09:41:00,50.4,5.9,28.94,SSE,167,5.8,5.8,16,0.00,,---,0.00,VWS V14.01,2013-02-18 15:41:00,
2013-02-18 09:42:00,50.7,10.0,28.94,SSE,168,6.7,6.7,19,0.00,,---,0.00,VWS V14.01,2013-02-18 15:42:00,
2013-02-18 09:43:00,50.7,10.0,28.94,SSE,168,6.7,6.7,19,0.00,,---,0.00,VWS V14.01,2013-02-18 15:43:00,
2013-02-18 09:46:00,51.3,6.6,28.94,SSE,156,4.9,4.9,16,0.00,,---,0.00,VWS V14.01,2013-02-18 15:46:00,
2013-02-18 09:47:00,51.3,6.6,28.94,SSE,156,4.9,4.9,16,0.00,,---,0.00,VWS V14.01,2013-02-18 15:47:00,
2013-02-18 09:48:00,51.3,6.6,28.94,SSE,159,5.8,5.8,16,0.00,,---,0.00,VWS V14.01,2013-02-18 15:48:00,
2013-02-18 09:51:00,52.7,7.8,28.94,South,170,5.4,5.4,16,0.00,,---,0.00,VWS V14.01,2013-02-18 15:51:00,
2013-02-18 09:52:00,52.7,7.8,28.94,SSE,167,3.1,5.4,16,0.00,,---,0.00,VWS V14.01,2013-02-18 15:52:00,
2013-02-18 09:53:00,52.9,7.9,28.94,SSE,147,5.4,5.4,16,0.00,,---,0.00,VWS V14.01,2013-02-18 15:53:00,
2013-02-18 09:56:00,52.9,7.9,28.94,SSE,168,4.9,6.3,16,0.00,,---,0.00,VWS V14.01,2013-02-18 15:56:00,
2013-02-18 09:57:00,53.4,11.0,28.94,SE,134,4.9,4.9,18,0.00,,---,0.00,VWS V14.01,2013-02-18 15:57:00,
2013-02-18 09:58:00,53.4,11.0,28.94,SE,134,4.9,4.9,18,0.00,,---,0.00,VWS V14.01,2013-02-18 15:58:00,
2013-02-18 10:01:00,54.1,11.6,28.94,South,175,5.4,5.4,18,0.00,,---,0.00,VWS V14.01,2013-02-18 16:01:00,
2013-02-18 10:02:00,54.3,7.7,28.94,South,175,5.4,5.4,15,0.00,,---,0.00,VWS V14.01,2013-02-18 16:02:00,
2013-02-18 10:03:00,54.5,7.8,28.94,South,185,6.3,6.3,15,0.00,,---,0.00,VWS V14.01,2013-02-18 16:03:00,
2013-02-18 10:06:00,55.0,8.2,28.94,SSE,165,6.3,6.3,15,0.00,,---,0.00,VWS V14.01,2013-02-18 16:06:00,
2013-02-18 10:07:00,55.0,8.2,28.94,SSE,168,6.3,6.3,15,0.00,,---,0.00,VWS V14.01,2013-02-18 16:07:00,
2013-02-18 10:08:00,55.0,8.2,28.94,SSE,168,6.3,6.3,15,0.00,,---,0.00,VWS V14.01,2013-02-18 16:08:00,
2013-02-18 10:11:00,54.9,8.1,28.94,South,174,12.3,12.3,15,0.00,,---,0.00,VWS V14.01,2013-02-18 16:11:00,
2013-02-18 10:13:00,54.9,8.1,28.94,South,174,12.3,12.3,15,0.00,,---,0.00,VWS V14.01,2013-02-18 16:13:00,
2013-02-18 10:14:00,54.1,7.5,28.94,SSW,192,12.3,12.3,15,0.00,,---,0.00,VWS V14.01,2013-02-18 16:14:00,
2013-02-18 10:16:00,54.1,7.5,28.94,South,169,8.1,8.1,15,0.00,,---,0.00,VWS V14.01,2013-02-18 16:16:00,
2013-02-18 10:18:00,54.3,7.7,28.94,SSW,199,10.1,10.1,15,0.00,,---,0.00,VWS V14.01,2013-02-18 16:18:00,
2013-02-18 10:19:00,54.3,7.7,28.94,East,82,4.9,10.1,15,0.00,,---,0.00,VWS V14.01,2013-02-18 16:19:00,
2013-02-18 10:21:00,55.0,8.2,28.94,ESE,111,4.0,4.0,15,0.00,,---,0.00,VWS V14.01,2013-02-18 16:21:00,
2013-02-18 10:23:00,55.2,8.4,28.94,SSW,193,15.4,15.4,15,0.00,,---,0.00,VWS V14.01,2013-02-18 16:23:00,
2013-02-18 10:24:00,54.9,8.1,28.94,SE,136,10.5,15.4,15,0.00,,---,0.00,VWS V14.01,2013-02-18 16:24:00,
2013-02-18 10:26:00,54.9,8.1,28.94,WSW,248,5.4,5.4,15,0.00,,---,0.00,VWS V14.01,2013-02-18 16:26:00,
2013-02-18 10:28:00,54.9,8.1,28.94,South,183,5.4,5.4,15,0.00,,---,0.00,VWS V14.01,2013-02-18 16:28:00,
2013-02-18 10:29:00,55.8,8.8,28.94,South,173,4.9,4.9,15,0.00,,---,0.00,VWS V14.01,2013-02-18 16:29:00,
2013-02-18 10:31:00,55.9,9.0,28.94,WNW,300,7.2,7.2,15,0.00,,---,0.00,VWS V14.01,2013-02-18 16:31:00,
2013-02-18 10:33:00,56.1,9.1,28.94,South,183,8.3,8.3,15,0.00,,---,0.00,VWS V14.01,2013-02-18 16:33:00,
2013-02-18 10:34:00,56.1,9.1,28.94,SSE,164,8.1,8.3,15,0.00,,---,0.00,VWS V14.01,2013-02-18 16:34:00,
2013-02-18 10:36:00,56.5,9.4,28.94,South,185,3.6,3.6,15,0.00,,---,0.00,VWS V14.01,2013-02-18 16:36:00,
2013-02-18 10:38:00,56.5,9.4,28.94,South,181,10.5,10.5,15,0.00,,---,0.00,VWS V14.01,2013-02-18 16:38:00,
2013-02-18 10:39:00,55.9,9.0,28.94,South,175,12.3,12.3,15,0.00,,---,0.00,VWS V14.01,2013-02-18 16:39:00,
2013-02-18 10:41:00,55.9,9.0,28.94,SSE,164,18.3,18.3,15,0.00,,---,0.00,VWS V14.01,2013-02-18 16:41:00,
2013-02-18 10:43:00,55.4,8.5,28.94,ENE,64,7.6,7.6,15,0.00,,---,0.00,VWS V14.01,2013-02-18 16:43:00,
2013-02-18 10:44:00,55.4,8.5,28.94,WSW,251,4.9,7.6,15,0.00,,---,0.00,VWS V14.01,2013-02-18 16:44:00,
2013-02-18 10:46:00,55.8,8.8,28.94,WSW,255,5.4,6.7,15,0.00,,---,0.00,VWS V14.01,2013-02-18 16:46:00,
2013-02-18 10:48:00,55.9,9.0,28.94,ESE,113,8.7,8.7,15,0.00,,---,0.00,VWS V14.01,2013-02-18 16:48:00,
2013-02-18 10:49:00,55.9,9.0,28.94,SSE,149,6.3,6.3,15,0.00,,---,0.00,VWS V14.01,2013-02-18 16:49:00,
2013-02-18 10:52:00,56.1,9.1,28.94,SSE,166,10.5,10.5,15,0.00,,---,0.00,VWS V14.01,2013-02-18 16:52:00,
2013-02-18 10:53:00,56.5,9.4,28.94,South,179,10.5,12.3,15,0.00,,---,0.00,VWS V14.01,2013-02-18 16:53:00,
2013-02-18 10:54:00,56.5,9.4,28.91,SSW,204,8.3,8.3,15,0.00,,---,0.00,VWS V14.01,2013-02-18 16:54:00,
2013-02-18 10:57:00,56.7,9.6,28.91,South,184,12.8,12.8,15,0.00,,---,0.00,VWS V14.01,2013-02-18 16:57:00,
2013-02-18 10:58:00,56.7,9.6,28.91,SSW,210,7.6,7.6,15,0.00,,---,0.00,VWS V14.01,2013-02-18 16:58:00,
2013-02-18 10:59:00,56.7,9.6,28.91,SSW,210,7.6,7.6,15,0.00,,---,0.00,VWS V14.01,2013-02-18 16:59:00,
2013-02-18 11:02:00,56.7,9.6,28.91,SSE,165,8.3,8.3,15,0.00,,---,0.00,VWS V14.01,2013-02-18 17:02:00,
2013-02-18 11:03:00,57.2,8.4,28.91,South,183,3.6,8.3,14,0.00,,---,0.00,VWS V14.01,2013-02-18 17:03:00,
2013-02-18 11:04:00,57.2,8.4,28.91,South,183,3.6,3.6,14,0.00,,---,0.00,VWS V14.01,2013-02-18 17:04:00,
2013-02-18 11:07:00,57.9,9.0,28.91,SSE,164,10.5,10.5,14,0.00,,---,0.00,VWS V14.01,2013-02-18 17:07:00,
2013-02-18 11:08:00,57.9,9.0,28.91,SW,235,3.6,3.6,14,0.00,,---,0.00,VWS V14.01,2013-02-18 17:08:00,
2013-02-18 11:10:00,58.1,9.2,28.91,South,176,8.3,8.3,14,0.00,,---,0.00,VWS V14.01,2013-02-18 17:10:00,
2013-02-18 11:12:00,57.9,9.0,28.91,South,170,8.1,8.1,14,0.00,,---,0.00,VWS V14.01,2013-02-18 17:12:00,
2013-02-18 11:13:00,57.7,8.9,28.91,South,172,7.6,7.6,14,0.00,,---,0.00,VWS V14.01,2013-02-18 17:13:00,
2013-02-18 11:15:00,57.7,8.9,28.91,South,189,3.6,7.6,14,0.00,,---,0.00,VWS V14.01,2013-02-18 17:15:00,
2013-02-18 11:17:00,57.7,8.9,28.91,West,267,7.6,7.6,14,0.00,,---,0.00,VWS V14.01,2013-02-18 17:17:00,
2013-02-18 11:19:00,58.6,9.6,28.91,WSW,251,6.3,6.3,14,0.00,,---,0.00,VWS V14.01,2013-02-18 17:19:00,
2013-02-18 11:20:00,58.6,9.6,28.91,SE,131,12.8,12.8,14,0.00,,---,0.00,VWS V14.01,2013-02-18 17:20:00,
2013-02-18 11:22:00,58.3,9.3,28.91,SE,141,8.1,8.1,14,0.00,,---,0.00,VWS V14.01,2013-02-18 17:22:00,
2013-02-18 11:24:00,58.3,9.3,28.91,South,183,5.8,5.8,14,0.00,,---,0.00,VWS V14.01,2013-02-18 17:24:00,
2013-02-18 11:25:00,58.3,9.3,28.91,South,183,5.8,5.8,14,0.00,,---,0.00,VWS V14.01,2013-02-18 17:25:00,
2013-02-18 11:27:00,58.5,9.5,28.91,SSW,195,5.4,5.4,14,0.00,,---,0.00,VWS V14.01,2013-02-18 17:27:00,
2013-02-18 11:29:00,58.5,9.5,28.91,SSW,195,5.4,5.4,14,0.00,,---,0.00,VWS V14.01,2013-02-18 17:29:00,
2013-02-18 11:30:00,58.5,9.5,28.91,South,171,8.3,8.3,14,0.00,,---,0.00,VWS V14.01,2013-02-18 17:30:00,
2013-02-18 11:32:00,58.5,9.5,28.91,West,264,5.8,8.3,14,0.00,,---,0.00,VWS V14.01,2013-02-18 17:32:00,
2013-02-18 11:34:00,59.0,9.9,28.91,West,264,5.8,5.8,14,0.00,,---,0.00,VWS V14.01,2013-02-18 17:34:00,
2013-02-18 11:35:00,59.2,10.0,28.91,West,264,5.8,5.8,14,0.00,,---,0.00,VWS V14.01,2013-02-18 17:35:00,
2013-02-18 11:37:00,59.7,10.5,28.91,South,173,8.3,8.3,14,0.00,,---,0.00,VWS V14.01,2013-02-18 17:37:00,
2013-02-18 11:39:00,59.7,10.5,28.91,South,173,7.6,7.6,14,0.00,,---,0.00,VWS V14.01,2013-02-18 17:39:00,
2013-02-18 11:40:00,59.7,10.5,28.91,SSE,153,6.3,6.3,14,0.00,,---,0.00,VWS V14.01,2013-02-18 17:40:00,
2013-02-18 11:43:00,59.2,10.0,28.91,SSE,156,8.1,8.1,14,0.00,,---,0.00,VWS V14.01,2013-02-18 17:43:00,
2013-02-18 11:44:00,59.2,10.0,28.91,South,185,6.3,6.3,14,0.00,,---,0.00,VWS V14.01,2013-02-18 17:44:00,
2013-02-18 11:45:00,59.0,9.9,28.91,SE,146,5.8,5.8,14,0.00,,---,0.00,VWS V14.01,2013-02-18 17:45:00,
2013-02-18 11:47:00,59.2,10.0,28.91,South,170,8.1,8.1,14,0.00,,---,0.00,VWS V14.01,2013-02-18 17:47:00,
2013-02-18 11:49:00,59.4,10.2,28.91,SSE,160,5.8,6.3,14,0.00,,---,0.00,VWS V14.01,2013-02-18 17:49:00,
2013-02-18 11:51:00,59.4,10.2,28.91,SSE,160,5.8,5.8,14,0.00,,---,0.00,VWS V14.01,2013-02-18 17:51:00,
2013-02-18 11:52:00,59.4,10.2,28.91,SSW,208,8.1,8.1,14,0.00,,---,0.00,VWS V14.01,2013-02-18 17:52:00,
2013-02-18 11:54:00,59.4,10.2,28.91,SE,146,5.8,12.3,14,0.00,,---,0.00,VWS V14.01,2013-02-18 17:54:00,
2013-02-18 11:56:00,59.9,10.6,28.91,South,169,8.7,8.7,14,0.00,,---,0.00,VWS V14.01,2013-02-18 17:56:00,
2013-02-18 11:58:00,59.9,10.6,28.91,South,186,8.1,8.7,14,0.00,,---,0.00,VWS V14.01,2013-02-18 17:58:00,
2013-02-18 12:00:00,60.1,10.8,28.91,South,174,3.6,8.1,14,0.00,,---,0.00,VWS V14.01,2013-02-18 18:00:00,
2013-02-18 12:01:00,60.1,10.8,28.91,SE,137,3.1,5.4,14,0.00,,---,0.00,VWS V14.01,2013-02-18 18:01:00,
2013-02-18 12:03:00,60.4,11.0,28.88,South,180,4.0,6.7,14,0.00,,---,0.00,VWS V14.01,2013-02-18 18:03:00,
2013-02-18 12:05:00,60.1,10.8,28.88,South,180,4.0,4.0,14,0.00,,---,0.00,VWS V14.01,2013-02-18 18:05:00,
2013-02-18 12:06:00,60.1,10.8,28.88,SSE,155,10.5,10.5,14,0.00,,---,0.00,VWS V14.01,2013-02-18 18:06:00,
2013-02-18 12:08:00,59.4,10.2,28.88,SSE,166,12.8,12.8,14,0.00,,---,0.00,VWS V14.01,2013-02-18 18:08:00,
2013-02-18 12:10:00,59.4,10.2,28.88,South,173,7.6,7.6,14,0.00,,---,0.00,VWS V14.01,2013-02-18 18:10:00,
2013-02-18 12:11:00,59.4,10.2,28.88,SE,136,8.1,8.1,14,0.00,,---,0.00,VWS V14.01,2013-02-18 18:11:00,
2013-02-18 12:13:00,59.2,10.0,28.88,SSE,160,8.3,8.3,14,0.00,,---,0.00,VWS V14.01,2013-02-18 18:13:00,
2013-02-18 12:15:00,59.0,9.9,28.88,SSE,165,5.4,9.2,14,0.00,,---,0.00,VWS V14.01,2013-02-18 18:15:00,
2013-02-18 12:16:00,59.0,9.9,28.88,SSE,165,5.4,5.4,14,0.00,,---,0.00,VWS V14.01,2013-02-18 18:16:00,
2013-02-18 12:18:00,59.2,10.0,28.88,SSE,168,6.3,8.7,14,0.00,,---,0.00,VWS V14.01,2013-02-18 18:18:00,
2013-02-18 12:21:00,59.2,10.0,28.88,SSE,147,5.8,5.8,14,0.00,,---,0.00,VWS V14.01,2013-02-18 18:21:00,
2013-02-18 12:23:00,59.4,10.2,28.88,SE,145,6.3,6.3,14,0.00,,---,0.00,VWS V14.01,2013-02-18 18:23:00,
2013-02-18 12:26:00,59.4,10.2,28.85,SSE,161,5.8,5.8,14,0.00,,---,0.00,VWS V14.01,2013-02-18 18:26:00,
2013-02-18 12:28:00,59.9,10.6,28.85,South,173,6.3,8.7,14,0.00,,---,0.00,VWS V14.01,2013-02-18 18:28:00,
2013-02-18 12:31:00,59.9,10.6,28.85,SSE,158,6.3,10.1,14,0.00,,---,0.00,VWS V14.01,2013-02-18 18:31:00,
2013-02-18 12:33:00,59.9,10.6,28.85,SE,126,8.1,8.1,14,0.00,,---,0.00,VWS V14.01,2013-02-18 18:33:00,
2013-02-18 12:36:00,59.9,10.6,28.85,SSW,198,10.5,10.5,14,0.00,,---,0.00,VWS V14.01,2013-02-18 18:36:00,
2013-02-18 12:38:00,59.9,10.6,28.85,SE,146,7.6,7.6,14,0.00,,---,0.00,VWS V14.01,2013-02-18 18:38:00,
2013-02-18 12:41:00,59.5,10.3,28.85,South,173,5.8,8.1,14,0.00,,---,0.00,VWS V14.01,2013-02-18 18:41:00,
2013-02-18 12:42:00,59.5,10.3,28.85,South,173,5.8,5.8,14,0.00,,---,0.00,VWS V14.01,2013-02-18 18:42:00,
2013-02-18 12:43:00,59.7,10.5,28.85,SSE,165,10.1,10.1,14,0.00,,---,0.00,VWS V14.01,2013-02-18 18:43:00,
2013-02-18 12:46:00,59.9,10.6,28.85,South,190,11.0,11.0,14,0.00,,---,0.00,VWS V14.01,2013-02-18 18:46:00,
2013-02-18 12:47:00,60.1,10.8,28.85,South,190,11.0,11.0,14,0.00,,---,0.00,VWS V14.01,2013-02-18 18:47:00,
2013-02-18 12:48:00,60.1,10.8,28.85,SE,137,8.3,8.3,14,0.00,,---,0.00,VWS V14.01,2013-02-18 18:48:00,
2013-02-18 12:51:00,60.4,11.0,28.85,SSE,153,8.3,12.3,14,0.00,,---,0.00,VWS V14.01,2013-02-18 18:51:00,
2013-02-18 12:52:00,60.4,11.0,28.85,SSE,153,8.3,8.3,14,0.00,,---,0.00,VWS V14.01,2013-02-18 18:52:00,
2013-02-18 12:54:00,60.1,10.8,28.85,SSE,155,8.3,8.3,14,0.00,,---,0.00,VWS V14.01,2013-02-18 18:54:00,
2013-02-18 12:56:00,60.3,10.9,28.85,SSE,163,4.5,4.5,14,0.00,,---,0.00,VWS V14.01,2013-02-18 18:56:00,
2013-02-18 12:57:00,60.3,10.9,28.85,South,181,6.3,6.3,14,0.00,,---,0.00,VWS V14.01,2013-02-18 18:57:00,
2013-02-18 12:59:00,60.6,11.2,28.85,SSE,164,6.3,6.3,14,0.00,,---,0.00,VWS V14.01,2013-02-18 18:59:00,
2013-02-18 13:01:00,60.6,11.2,28.85,South,172,17.4,17.4,14,0.00,,---,0.00,VWS V14.01,2013-02-18 19:01:00,
2013-02-18 13:02:00,60.6,11.2,28.85,South,172,17.4,17.4,14,0.00,,---,0.00,VWS V14.01,2013-02-18 19:02:00,
2013-02-18 13:04:00,60.6,11.2,28.85,SSE,166,7.6,7.6,14,0.00,,---,0.00,VWS V14.01,2013-02-18 19:04:00,
2013-02-18 13:06:00,60.1,10.8,28.85,East,100,10.1,10.1,14,0.00,,---,0.00,VWS V14.01,2013-02-18 19:06:00,
2013-02-18 13:07:00,60.1,10.8,28.85,East,100,10.1,10.1,14,0.00,,---,0.00,VWS V14.01,2013-02-18 19:07:00,
2013-02-18 13:09:00,60.1,10.8,28.82,South,170,6.3,6.3,14,0.00,,---,0.00,VWS V14.01,2013-02-18 19:09:00,
2013-02-18 13:12:00,60.3,10.9,28.82,SSE,153,12.3,17.0,14,0.00,,---,0.00,VWS V14.01,2013-02-18 19:12:00,
2013-02-18 13:14:00,60.1,10.8,28.82,SSW,192,11.0,11.0,14,0.00,,---,0.00,VWS V14.01,2013-02-18 19:14:00,
2013-02-18 13:17:00,60.1,10.8,28.82,West,278,8.3,9.6,14,0.00,,---,0.00,VWS V14.01,2013-02-18 19:17:00,
2013-02-18 13:18:00,60.1,10.8,28.82,South,179,9.6,9.6,14,0.00,,---,0.00,VWS V14.01,2013-02-18 19:18:00,
2013-02-18 13:19:00,60.1,10.8,28.82,South,191,10.5,10.5,14,0.00,,---,0.00,VWS V14.01,2013-02-18 19:19:00,
2013-02-18 13:22:00,60.3,10.9,28.82,South,191,10.5,10.5,14,0.00,,---,0.00,VWS V14.01,2013-02-18 19:22:00,
2013-02-18 13:23:00,60.3,10.9,28.82,SE,126,8.1,10.5,14,0.00,,---,0.00,VWS V14.01,2013-02-18 19:23:00,
2013-02-18 13:24:00,60.4,11.0,28.82,SE,126,8.1,8.1,14,0.00,,---,0.00,VWS V14.01,2013-02-18 19:24:00,
2013-02-18 13:27:00,60.4,11.0,28.82,South,182,10.1,10.1,14,0.00,,---,0.00,VWS V14.01,2013-02-18 19:27:00,
2013-02-18 13:28:00,60.4,11.0,28.82,South,181,8.3,10.1,14,0.00,,---,0.00,VWS V14.01,2013-02-18 19:28:00,
2013-02-18 13:29:00,60.3,10.9,28.82,SE,137,5.4,5.8,14,0.00,,---,0.00,VWS V14.01,2013-02-18 19:29:00,
2013-02-18 13:32:00,60.4,11.0,28.82,South,169,5.8,5.8,14,0.00,,---,0.00,VWS V14.01,2013-02-18 19:32:00,
2013-02-18 13:33:00,60.4,11.0,28.82,SSE,148,5.8,5.8,14,0.00,,---,0.00,VWS V14.01,2013-02-18 19:33:00,
2013-02-18 13:35:00,60.6,11.2,28.82,SSE,152,9.2,12.3,14,0.00,,---,0.00,VWS V14.01,2013-02-18 19:35:00,
2013-02-18 13:37:00,60.6,11.2,28.82,SSE,167,6.3,10.1,14,0.00,,---,0.00,VWS V14.01,2013-02-18 19:37:00,
2013-02-18 13:38:00,60.6,11.2,28.82,SSE,167,6.3,10.1,14,0.00,,---,0.00,VWS V14.01,2013-02-18 19:38:00,
2013-02-18 13:40:00,60.6,11.2,28.82,SSE,162,4.0,4.0,14,0.00,,---,0.00,VWS V14.01,2013-02-18 19:40:00,
2013-02-18 13:43:00,60.6,11.2,28.82,SE,126,6.3,10.5,14,0.00,,---,0.00,VWS V14.01,2013-02-18 19:43:00,
2013-02-18 13:45:00,60.4,11.0,28.82,SSE,162,5.8,8.7,14,0.00,,---,0.00,VWS V14.01,2013-02-18 19:45:00,
2013-02-18 13:48:00,60.4,11.0,28.82,South,169,10.5,10.5,14,0.00,,---,0.00,VWS V14.01,2013-02-18 19:48:00,
2013-02-18 13:50:00,60.4,11.0,28.82,SSE,160,6.3,6.3,14,0.00,,---,0.00,VWS V14.01,2013-02-18 19:50:00,
2013-02-18 13:53:00,60.8,11.3,28.82,South,185,3.6,3.6,14,0.00,,---,0.00,VWS V14.01,2013-02-18 19:53:00,
2013-02-18 13:55:00,61.0,11.5,28.82,SSE,166,8.3,10.1,14,0.00,,---,0.00,VWS V14.01,2013-02-18 19:55:00,
2013-02-18 13:58:00,60.8,11.3,28.79,South,173,15.0,15.0,14,0.00,,---,0.00,VWS V14.01,2013-02-18 19:58:00,
2013-02-18 14:00:00,60.4,11.0,28.79,South,176,11.0,11.0,14,0.00,,---,0.00,VWS V14.01,2013-02-18 20:00:00,
2013-02-18 14:03:00,60.1,10.8,28.79,SSW,204,7.6,7.6,14,0.00,,---,0.00,VWS V14.01,2013-02-18 20:03:00,
2013-02-18 14:05:00,59.9,10.6,28.79,South,175,5.8,5.8,14,0.00,,---,0.00,VWS V14.01,2013-02-18 20:05:00,
2013-02-18 14:08:00,59.9,10.6,28.79,SSE,164,8.3,8.7,14,0.00,,---,0.00,VWS V14.01,2013-02-18 20:08:00,
2013-02-18 14:10:00,59.5,10.3,28.79,SE,144,10.5,11.0,14,0.00,,---,0.00,VWS V14.01,2013-02-18 20:10:00,
2013-02-18 14:13:00,59.5,10.3,28.79,SSE,166,13.2,13.2,14,0.00,,---,0.00,VWS V14.01,2013-02-18 20:13:00,
2013-02-18 14:16:00,59.5,10.3,28.79,SSE,150,7.6,7.6,14,0.00,,---,0.00,VWS V14.01,2013-02-18 20:16:00,
2013-02-18 14:18:00,59.4,10.2,28.79,SSE,147,11.0,11.0,14,0.00,,---,0.00,VWS V14.01,2013-02-18 20:18:00,
2013-02-18 14:21:00,59.2,10.0,28.79,SSW,196,8.3,11.9,14,0.00,,---,0.00,VWS V14.01,2013-02-18 20:21:00,
2013-02-18 14:24:00,59.4,10.2,28.79,South,181,5.4,8.7,14,0.00,,---,0.00,VWS V14.01,2013-02-18 20:24:00,
2013-02-18 14:26:00,59.4,10.2,28.79,SSE,151,10.1,10.1,14,0.00,,---,0.00,VWS V14.01,2013-02-18 20:26:00,
2013-02-18 14:29:00,58.8,9.8,28.79,South,171,9.2,9.2,14,0.00,,---,0.00,VWS V14.01,2013-02-18 20:29:00,
2013-02-18 14:31:00,58.6,9.6,28.79,SSE,166,8.3,12.3,14,0.00,,---,0.00,VWS V14.01,2013-02-18 20:31:00,
2013-02-18 14:34:00,58.6,9.6,28.79,SSE,161,13.2,13.2,14,0.00,,---,0.00,VWS V14.01,2013-02-18 20:34:00,
2013-02-18 14:36:00,58.6,9.6,28.79,SSE,153,13.2,13.2,14,0.00,,---,0.00,VWS V14.01,2013-02-18 20:36:00,
2013-02-18 14:39:00,58.8,9.8,28.79,South,191,12.8,12.8,14,0.00,,---,0.00,VWS V14.01,2013-02-18 20:39:00,
2013-02-18 14:41:00,58.6,9.6,28.79,South,191,12.8,12.8,14,0.00,,---,0.00,VWS V14.01,2013-02-18 20:41:00,
2013-02-18 14:44:00,58.5,9.5,28.79,SE,146,8.7,8.7,14,0.00,,---,0.00,VWS V14.01,2013-02-18 20:44:00,
2013-02-18 14:46:00,58.5,9.5,28.79,South,174,8.3,8.3,14,0.00,,---,0.00,VWS V14.01,2013-02-18 20:46:00,
2013-02-18 14:49:00,58.5,9.5,28.79,South,172,17.0,17.0,14,0.00,,---,0.00,VWS V14.01,2013-02-18 20:49:00,
2013-02-18 14:51:00,58.6,9.6,28.79,South,171,12.3,15.9,14,0.00,,---,0.00,VWS V14.01,2013-02-18 20:51:00,
2013-02-18 14:54:00,58.5,9.5,28.76,SSE,168,8.1,8.1,14,0.00,,---,0.00,VWS V14.01,2013-02-18 20:54:00,
2013-02-18 14:56:00,58.5,9.5,28.76,SE,146,6.3,6.3,14,0.00,,---,0.00,VWS V14.01,2013-02-18 20:56:00,
2013-02-18 14:59:00,58.5,9.5,28.76,South,187,12.3,12.3,14,0.00,,---,0.00,VWS V14.01,2013-02-18 20:59:00,
2013-02-18 15:01:00,58.5,9.5,28.76,SSE,159,8.7,8.7,14,0.00,,---,0.00,VWS V14.01,2013-02-18 21:01:00,
2013-02-18 15:04:00,58.5,9.5,28.76,SSE,166,10.5,10.5,14,0.00,,---,0.00,VWS V14.01,2013-02-18 21:04:00,
2013-02-18 15:06:00,58.5,9.5,28.76,ESE,123,12.3,12.3,14,0.00,,---,0.00,VWS V14.01,2013-02-18 21:06:00,
2013-02-18 15:09:00,58.5,9.5,28.76,SSE,148,11.0,11.0,14,0.00,,---,0.00,VWS V14.01,2013-02-18 21:09:00,
2013-02-18 15:12:00,58.5,9.5,28.76,SSE,147,10.1,10.1,14,0.00,,---,0.00,VWS V14.01,2013-02-18 21:12:00,
2013-02-18 15:14:00,58.5,9.5,28.76,SE,146,8.1,8.1,14,0.00,,---,0.00,VWS V14.01,2013-02-18 21:14:00,
2013-02-18 15:17:00,58.5,9.5,28.76,SSE,163,4.0,4.0,14,0.00,,---,0.00,VWS V14.01,2013-02-18 21:17:00,
2013-02-18 15:19:00,58.5,9.5,28.76,SSE,162,11.0,11.0,14,0.00,,---,0.00,VWS V14.01,2013-02-18 21:19:00,
2013-02-18 15:22:00,58.3,9.3,28.76,South,177,11.0,11.0,14,0.00,,---,0.00,VWS V14.01,2013-02-18 21:22:00,
2013-02-18 15:24:00,58.3,9.3,28.76,South,176,17.4,17.4,14,0.00,,---,0.00,VWS V14.01,2013-02-18 21:24:00,
2013-02-18 15:27:00,58.1,9.2,28.76,SSE,156,11.0,11.0,14,0.00,,---,0.00,VWS V14.01,2013-02-18 21:27:00,
2013-02-18 15:29:00,58.1,9.2,28.76,South,188,15.0,15.0,14,0.00,,---,0.00,VWS V14.01,2013-02-18 21:29:00,
2013-02-18 15:30:00,58.1,9.2,28.76,South,188,15.0,15.0,14,0.00,,---,0.00,VWS V14.01,2013-02-18 21:30:00,
2013-02-18 15:32:00,57.9,9.0,28.76,SE,139,11.0,11.0,14,0.00,,---,0.00,VWS V14.01,2013-02-18 21:32:00,
2013-02-18 15:34:00,57.9,9.0,28.76,SSE,148,10.1,10.1,14,0.00,,---,0.00,VWS V14.01,2013-02-18 21:34:00,
2013-02-18 15:35:00,57.9,9.0,28.76,SSE,158,10.1,10.1,14,0.00,,---,0.00,VWS V14.01,2013-02-18 21:35:00,
2013-02-18 15:37:00,57.9,9.0,28.76,South,170,7.6,7.6,14,0.00,,---,0.00,VWS V14.01,2013-02-18 21:37:00,
2013-02-18 15:39:00,57.7,8.9,28.76,SSE,162,5.8,8.7,14,0.00,,---,0.00,VWS V14.01,2013-02-18 21:39:00,
2013-02-18 15:40:00,57.7,8.9,28.76,South,176,5.8,5.8,14,0.00,,---,0.00,VWS V14.01,2013-02-18 21:40:00,
2013-02-18 15:42:00,57.7,8.9,28.76,NNW,348,6.3,6.3,14,0.00,,---,0.00,VWS V14.01,2013-02-18 21:42:00,
2013-02-18 15:45:00,57.4,8.6,28.76,SSE,158,10.5,10.5,14,0.00,,---,0.00,VWS V14.01,2013-02-18 21:45:00,
2013-02-18 15:47:00,57.4,8.6,28.76,SSE,164,7.6,7.6,14,0.00,,---,0.00,VWS V14.01,2013-02-18 21:47:00,
2013-02-18 15:50:00,57.2,8.4,28.76,SSE,156,10.1,10.1,14,0.00,,---,0.00,VWS V14.01,2013-02-18 21:50:00,
2013-02-18 15:52:00,57.0,9.8,28.76,South,178,6.3,6.3,15,0.00,,---,0.00,VWS V14.01,2013-02-18 21:52:00,
2013-02-18 15:55:00,57.0,9.8,28.76,SW,223,3.6,3.6,15,0.00,,---,0.00,VWS V14.01,2013-02-18 21:55:00,
2013-02-18 15:58:00,56.8,9.7,28.76,SSE,155,12.8,12.8,15,0.00,,---,0.00,VWS V14.01,2013-02-18 21:58:00,
2013-02-18 16:00:00,56.8,9.7,28.76,ENE,62,9.6,9.6,15,0.00,,---,0.00,VWS V14.01,2013-02-18 22:00:00,
2013-02-18 16:01:00,56.8,9.7,28.76,ENE,62,9.6,9.6,15,0.00,,---,0.00,VWS V14.01,2013-02-18 22:01:00,
2013-02-18 16:03:00,56.8,9.7,28.76,South,180,9.2,9.2,15,0.00,,---,0.00,VWS V14.01,2013-02-18 22:03:00,
2013-02-18 16:05:00,56.8,9.7,28.76,South,170,14.1,14.1,15,0.00,,---,0.00,VWS V14.01,2013-02-18 22:05:00,
2013-02-18 16:06:00,56.8,9.7,28.76,SSE,150,15.0,15.0,15,0.00,,---,0.00,VWS V14.01,2013-02-18 22:06:00,
2013-02-18 16:08:00,56.8,9.7,28.76,South,172,11.0,11.0,15,0.00,,---,0.00,VWS V14.01,2013-02-18 22:08:00,
2013-02-18 16:10:00,56.8,9.7,28.73,SE,134,6.3,10.5,15,0.00,,---,0.00,VWS V14.01,2013-02-18 22:10:00,
2013-02-18 16:11:00,56.8,9.7,28.73,SE,134,6.3,6.3,15,0.00,,---,0.00,VWS V14.01,2013-02-18 22:11:00,
2013-02-18 16:13:00,56.8,9.7,28.73,SSE,161,7.6,7.6,15,0.00,,---,0.00,VWS V14.01,2013-02-18 22:13:00,
2013-02-18 16:15:00,56.8,9.7,28.73,SSE,156,8.7,8.7,15,0.00,,---,0.00,VWS V14.01,2013-02-18 22:15:00,
2013-02-18 16:16:00,56.8,9.7,28.73,SSE,162,12.3,12.3,15,0.00,,---,0.00,VWS V14.01,2013-02-18 22:16:00,
2013-02-18 16:18:00,56.8,9.7,28.73,SSE,155,10.1,10.1,15,0.00,,---,0.00,VWS V14.01,2013-02-18 22:18:00,
2013-02-18 16:20:00,56.8,9.7,28.73,South,172,10.1,10.1,15,0.00,,---,0.00,VWS V14.01,2013-02-18 22:20:00,
2013-02-18 16:21:00,56.8,9.7,28.73,SSE,165,13.2,13.2,15,0.00,,---,0.00,VWS V14.01,2013-02-18 22:21:00,
2013-02-18 16:23:00,56.8,9.7,28.73,SSE,152,10.5,10.5,15,0.00,,---,0.00,VWS V14.01,2013-02-18 22:23:00,
2013-02-18 16:25:00,56.8,9.7,28.73,SE,128,7.6,7.6,15,0.00,,---,0.00,VWS V14.01,2013-02-18 22:25:00,
2013-02-18 16:26:00,56.8,9.7,28.73,SSE,153,12.3,12.3,15,0.00,,---,0.00,VWS V14.01,2013-02-18 22:26:00,
2013-02-18 16:28:00,56.7,9.6,28.73,SSE,165,10.1,10.1,15,0.00,,---,0.00,VWS V14.01,2013-02-18 22:28:00,
2013-02-18 16:30:00,56.7,9.6,28.73,South,181,13.2,13.2,15,0.00,,---,0.00,VWS V14.01,2013-02-18 22:30:00,
2013-02-18 16:31:00,56.5,9.4,28.73,SSE,151,11.0,11.0,15,0.00,,---,0.00,VWS V14.01,2013-02-18 22:31:00,
2013-02-18 16:33:00,56.5,9.4,28.73,South,170,8.3,10.5,15,0.00,,---,0.00,VWS V14.01,2013-02-18 22:33:00,
2013-02-18 16:35:00,56.3,9.3,28.73,SSW,194,12.8,12.8,15,0.00,,---,0.00,VWS V14.01,2013-02-18 22:35:00,
2013-02-18 16:36:00,56.3,9.3,28.73,SSE,164,14.1,14.1,15,0.00,,---,0.00,VWS V14.01,2013-02-18 22:36:00,
2013-02-18 16:38:00,56.3,9.3,28.73,ESE,119,11.9,14.1,15,0.00,,---,0.00,VWS V14.01,2013-02-18 22:38:00,
2013-02-18 16:40:00,56.3,9.3,28.73,South,169,8.3,8.3,15,0.00,,---,0.00,VWS V14.01,2013-02-18 22:40:00,
2013-02-18 16:41:00,56.1,9.1,28.73,South,169,8.3,8.3,15,0.00,,---,0.00,VWS V14.01,2013-02-18 22:41:00,
2013-02-18 16:44:00,56.1,9.1,28.73,South,169,8.3,8.3,15,0.00,,---,0.00,VWS V14.01,2013-02-18 22:44:00,
2013-02-18 16:45:00,56.1,9.1,28.73,SSE,153,12.3,12.3,15,0.00,,---,0.00,VWS V14.01,2013-02-18 22:45:00,
2013-02-18 16:47:00,56.1,9.1,28.73,SE,144,11.0,11.0,15,0.00,,---,0.00,VWS V14.01,2013-02-18 22:47:00,
2013-02-18 16:49:00,56.1,9.1,28.73,SSE,156,10.1,10.1,15,0.00,,---,0.00,VWS V14.01,2013-02-18 22:49:00,
2013-02-18 16:51:00,56.1,9.1,28.73,South,175,9.6,9.6,15,0.00,,---,0.00,VWS V14.01,2013-02-18 22:51:00,
2013-02-18 16:52:00,55.9,9.0,28.73,SSE,167,6.3,10.5,15,0.00,,---,0.00,VWS V14.01,2013-02-18 22:52:00,
2013-02-18 16:54:00,55.9,9.0,28.73,SSE,159,10.5,11.9,15,0.00,,---,0.00,VWS V14.01,2013-02-18 22:54:00,
2013-02-18 16:56:00,55.9,9.0,28.73,SE,138,11.0,11.0,15,0.00,,---,0.00,VWS V14.01,2013-02-18 22:56:00,
2013-02-18 16:57:00,55.9,9.0,28.73,South,177,7.6,11.0,15,0.00,,---,0.00,VWS V14.01,2013-02-18 22:57:00,
2013-02-18 16:59:00,55.9,9.0,28.73,South,180,8.7,10.5,15,0.00,,---,0.00,VWS V14.01,2013-02-18 22:59:00,
2013-02-18 17:01:00,55.9,9.0,28.73,SSE,163,10.1,10.1,15,0.00,,---,0.00,VWS V14.01,2013-02-18 23:01:00,
2013-02-18 17:02:00,55.9,9.0,28.73,South,173,8.3,8.3,15,0.00,,---,0.00,VWS V14.01,2013-02-18 23:02:00,
2013-02-18 17:04:00,55.9,9.0,28.73,South,187,10.1,10.1,15,0.00,,---,0.00,VWS V14.01,2013-02-18 23:04:00,
2013-02-18 17:06:00,55.9,9.0,28.73,South,187,10.1,10.1,15,0.00,,---,0.00,VWS V14.01,2013-02-18 23:06:00,
2013-02-18 17:07:00,55.9,9.0,28.73,SSE,165,9.6,9.6,15,0.00,,---,0.00,VWS V14.01,2013-02-18 23:07:00,
2013-02-18 17:09:00,55.9,9.0,28.73,SSE,165,9.6,9.6,15,0.00,,---,0.00,VWS V14.01,2013-02-18 23:09:00,
2013-02-18 17:11:00,55.8,8.8,28.73,SSE,153,8.3,8.3,15,0.00,,---,0.00,VWS V14.01,2013-02-18 23:11:00,
2013-02-18 17:12:00,55.8,8.8,28.73,SSE,162,10.1,10.1,15,0.00,,---,0.00,VWS V14.01,2013-02-18 23:12:00,
2013-02-18 17:14:00,55.8,8.8,28.73,South,186,6.7,15.4,15,0.00,,---,0.00,VWS V14.01,2013-02-18 23:14:00,
2013-02-18 17:16:00,55.8,8.8,28.73,South,172,5.4,7.2,15,0.00,,---,0.00,VWS V14.01,2013-02-18 23:16:00,
2013-02-18 17:18:00,55.6,8.7,28.73,South,183,5.8,6.3,15,0.00,,---,0.00,VWS V14.01,2013-02-18 23:18:00,
2013-02-18 17:19:00,55.6,8.7,28.73,South,183,5.8,5.8,15,0.00,,---,0.00,VWS V14.01,2013-02-18 23:19:00,
2013-02-18 17:21:00,55.4,8.5,28.73,East,97,10.1,10.1,15,0.00,,---,0.00,VWS V14.01,2013-02-18 23:21:00,
2013-02-18 17:23:00,55.4,8.5,28.73,ESE,122,8.7,12.3,15,0.00,,---,0.00,VWS V14.01,2013-02-18 23:23:00,
2013-02-18 17:24:00,55.2,8.4,28.73,South,176,6.3,6.3,15,0.00,,---,0.00,VWS V14.01,2013-02-18 23:24:00,
2013-02-18 17:26:00,55.2,8.4,28.73,SE,139,6.3,10.5,15,0.00,,---,0.00,VWS V14.01,2013-02-18 23:26:00,
2013-02-18 17:28:00,55.2,8.4,28.73,SSW,197,7.6,7.6,15,0.00,,---,0.00,VWS V14.01,2013-02-18 23:28:00,
2013-02-18 17:29:00,55.2,8.4,28.73,SSW,197,7.6,7.6,15,0.00,,---,0.00,VWS V14.01,2013-02-18 23:29:00,
2013-02-18 17:31:00,55.2,8.4,28.73,SSE,168,5.8,5.8,15,0.00,,---,0.00,VWS V14.01,2013-02-18 23:31:00,
2013-02-18 17:33:00,55.0,8.2,28.73,SSW,203,8.3,8.3,15,0.00,,---,0.00,VWS V14.01,2013-02-18 23:33:00,
2013-02-18 17:34:00,55.0,8.2,28.73,SSW,203,8.3,8.3,15,0.00,,---,0.00,VWS V14.01,2013-02-18 23:34:00,
2013-02-18 17:36:00,55.0,8.2,28.73,South,187,8.3,8.3,15,0.00,,---,0.00,VWS V14.01,2013-02-18 23:36:00,
2013-02-18 17:38:00,55.0,8.2,28.73,ESE,122,6.3,6.3,15,0.00,,---,0.00,VWS V14.01,2013-02-18 23:38:00,
2013-02-18 17:39:00,55.0,8.2,28.73,SSE,161,12.3,12.3,15,0.00,,---,0.00,VWS V14.01,2013-02-18 23:39:00,
2013-02-18 17:42:00,55.0,8.2,28.73,SSE,167,7.6,7.6,15,0.00,,---,0.00,VWS V14.01,2013-02-18 23:42:00,
2013-02-18 17:43:00,54.9,8.1,28.73,SSE,159,5.4,7.6,15,0.00,,---,0.00,VWS V14.01,2013-02-18 23:43:00,
2013-02-18 17:44:00,54.9,8.1,28.73,SSE,159,5.4,5.4,15,0.00,,---,0.00,VWS V14.01,2013-02-18 23:44:00,
2013-02-18 17:47:00,54.7,8.0,28.73,SW,223,5.8,8.7,15,0.00,,---,0.00,VWS V14.01,2013-02-18 23:47:00,
2013-02-18 17:49:00,54.5,7.8,28.73,SW,223,5.8,5.8,15,0.00,,---,0.00,VWS V14.01,2013-02-18 23:49:00,
2013-02-18 17:52:00,54.5,7.8,28.73,SSE,162,6.3,6.3,15,0.00,,---,0.00,VWS V14.01,2013-02-18 23:52:00,
2013-02-18 17:54:00,54.3,7.7,28.70,SSE,163,5.8,6.3,15,0.00,,---,0.00,VWS V14.01,2013-02-18 23:54:00,
2013-02-18 17:57:00,54.3,7.7,28.70,SSE,158,5.8,5.8,15,0.00,,---,0.00,VWS V14.01,2013-02-18 23:57:00,
2013-02-18 17:59:00,54.3,7.7,28.70,SSE,167,7.6,7.6,15,0.00,,---,0.00,VWS V14.01,2013-02-18 23:59:00,
2013-02-18 18:02:00,54.3,7.7,28.70,South,170,6.3,6.3,15,0.00,,---,0.00,VWS V14.01,2013-02-19 00:02:00,
2013-02-18 18:04:00,54.3,7.7,28.70,SSE,152,5.8,8.7,15,0.00,,---,0.00,VWS V14.01,2013-02-19 00:04:00,
2013-02-18 18:07:00,54.1,7.5,28.70,South,170,5.4,5.4,15,0.00,,---,0.00,VWS V14.01,2013-02-19 00:07:00,
2013-02-18 18:09:00,54.1,7.5,28.70,South,169,5.8,8.3,15,0.00,,---,0.00,VWS V14.01,2013-02-19 00:09:00,
2013-02-18 18:12:00,54.0,7.4,28.70,WSW,254,8.1,8.1,15,0.00,,---,0.00,VWS V14.01,2013-02-19 00:12:00,
2013-02-18 18:14:00,54.0,7.4,28.70,South,169,5.8,5.8,15,0.00,,---,0.00,VWS V14.01,2013-02-19 00:14:00,
2013-02-18 18:15:00,54.0,7.4,28.70,SSE,162,6.3,6.3,15,0.00,,---,0.00,VWS V14.01,2013-02-19 00:15:00,
2013-02-18 18:17:00,54.0,7.4,28.73,South,171,11.0,11.0,15,0.00,,---,0.00,VWS V14.01,2013-02-19 00:17:00,
2013-02-18 18:19:00,54.0,7.4,28.73,SE,141,8.3,11.0,15,0.00,,---,0.00,VWS V14.01,2013-02-19 00:19:00,
2013-02-18 18:21:00,54.1,7.5,28.73,South,169,5.8,8.3,15,0.00,,---,0.00,VWS V14.01,2013-02-19 00:21:00,
2013-02-18 18:22:00,54.0,7.4,28.73,South,173,8.3,10.5,15,0.00,,---,0.00,VWS V14.01,2013-02-19 00:22:00,
2013-02-18 18:24:00,54.0,7.4,28.73,SSE,162,7.6,8.3,15,0.00,,---,0.00,VWS V14.01,2013-02-19 00:24:00,
2013-02-18 18:26:00,53.8,7.2,28.73,SSE,149,8.7,11.4,15,0.00,,---,0.00,VWS V14.01,2013-02-19 00:26:00,
2013-02-18 18:28:00,53.8,7.2,28.73,SSE,155,8.1,8.1,15,0.00,,---,0.00,VWS V14.01,2013-02-19 00:28:00,
2013-02-18 18:29:00,53.8,7.2,28.73,South,174,11.9,11.9,15,0.00,,---,0.00,VWS V14.01,2013-02-19 00:29:00,
2013-02-18 18:31:00,53.6,7.1,28.73,SSE,149,8.3,8.3,15,0.00,,---,0.00,VWS V14.01,2013-02-19 00:31:00,
2013-02-18 18:33:00,53.6,7.1,28.73,SSE,153,10.1,10.1,15,0.00,,---,0.00,VWS V14.01,2013-02-19 00:33:00,
2013-02-18 18:34:00,53.8,7.2,28.73,SSE,153,10.1,10.1,15,0.00,,---,0.00,VWS V14.01,2013-02-19 00:34:00,
2013-02-18 18:36:00,53.8,7.2,28.73,SSE,153,10.1,10.1,15,0.00,,---,0.00,VWS V14.01,2013-02-19 00:36:00,
2013-02-18 18:38:00,53.6,7.1,28.73,SSE,165,6.3,7.6,15,0.00,,---,0.00,VWS V14.01,2013-02-19 00:38:00,
2013-02-18 18:39:00,53.6,7.1,28.73,South,177,7.6,7.6,15,0.00,,---,0.00,VWS V14.01,2013-02-19 00:39:00,
2013-02-18 18:41:00,53.6,7.1,28.73,WSW,243,7.6,7.6,15,0.00,,---,0.00,VWS V14.01,2013-02-19 00:41:00,
2013-02-18 18:43:00,53.6,7.1,28.73,WSW,243,7.6,7.6,15,0.00,,---,0.00,VWS V14.01,2013-02-19 00:43:00,
2013-02-18 18:44:00,53.4,8.4,28.73,South,191,13.2,13.2,16,0.00,,---,0.00,VWS V14.01,2013-02-19 00:44:00,
2013-02-18 18:46:00,53.4,8.4,28.73,South,191,13.2,13.2,16,0.00,,---,0.00,VWS V14.01,2013-02-19 00:46:00,
2013-02-18 18:48:00,53.4,8.4,28.73,SSE,158,8.3,13.2,16,0.00,,---,0.00,VWS V14.01,2013-02-19 00:48:00,
2013-02-18 18:50:00,53.4,8.4,28.73,SSE,155,8.7,8.7,16,0.00,,---,0.00,VWS V14.01,2013-02-19 00:50:00,
2013-02-18 18:51:00,53.4,8.4,28.73,SE,140,7.6,7.6,16,0.00,,---,0.00,VWS V14.01,2013-02-19 00:51:00,
2013-02-18 18:53:00,53.4,8.4,28.73,SSE,159,7.6,7.6,16,0.00,,---,0.00,VWS V14.01,2013-02-19 00:53:00,
2013-02-18 18:55:00,53.4,8.4,28.73,SSE,147,10.5,10.5,16,0.00,,---,0.00,VWS V14.01,2013-02-19 00:55:00,
2013-02-18 18:56:00,53.4,8.4,28.73,SE,134,8.3,10.5,16,0.00,,---,0.00,VWS V14.01,2013-02-19 00:56:00,
2013-02-18 18:58:00,53.4,8.4,28.73,SE,143,10.5,10.5,16,0.00,,---,0.00,VWS V14.01,2013-02-19 00:58:00,
2013-02-18 19:00:00,53.4,8.4,28.73,SE,144,13.2,13.2,16,0.00,,---,0.00,VWS V14.01,2013-02-19 01:00:00,
2013-02-18 19:01:00,53.4,8.4,28.73,SE,144,13.2,13.2,16,0.00,,---,0.00,VWS V14.01,2013-02-19 01:01:00,
2013-02-18 19:03:00,53.4,8.4,28.73,SE,145,9.6,9.6,16,0.00,,---,0.00,VWS V14.01,2013-02-19 01:03:00,
2013-02-18 19:05:00,53.2,8.2,28.73,South,171,6.3,6.3,16,0.00,,---,0.00,VWS V14.01,2013-02-19 01:05:00,
2013-02-18 19:06:00,53.2,8.2,28.73,South,171,6.3,6.3,16,0.00,,---,0.00,VWS V14.01,2013-02-19 01:06:00,
2013-02-18 19:08:00,53.2,8.2,28.73,South,170,8.1,8.1,16,0.00,,---,0.00,VWS V14.01,2013-02-19 01:08:00,
2013-02-18 19:10:00,53.1,8.1,28.70,South,182,11.9,11.9,16,0.00,,---,0.00,VWS V14.01,2013-02-19 01:10:00,
2013-02-18 19:12:00,53.1,8.1,28.70,South,177,12.3,12.3,16,0.00,,---,0.00,VWS V14.01,2013-02-19 01:12:00,
2013-02-18 19:13:00,53.1,8.1,28.70,South,183,12.8,12.8,16,0.00,,---,0.00,VWS V14.01,2013-02-19 01:13:00,
2013-02-18 19:15:00,53.1,8.1,28.70,South,173,8.7,10.5,16,0.00,,---,0.00,VWS V14.01,2013-02-19 01:15:00,
2013-02-18 19:17:00,53.2,8.2,28.70,South,171,15.0,15.0,16,0.00,,---,0.00,VWS V14.01,2013-02-19 01:17:00,
2013-02-18 19:18:00,53.2,8.2,28.70,SSE,162,6.3,15.0,16,0.00,,---,0.00,VWS V14.01,2013-02-19 01:18:00,
2013-02-18 19:20:00,53.1,8.1,28.70,SSE,149,8.1,8.1,16,0.00,,---,0.00,VWS V14.01,2013-02-19 01:20:00,
2013-02-18 19:22:00,53.1,8.1,28.70,South,171,11.9,11.9,16,0.00,,---,0.00,VWS V14.01,2013-02-19 01:22:00,
2013-02-18 19:23:00,53.1,8.1,28.70,SSE,165,8.1,8.1,16,0.00,,---,0.00,VWS V14.01,2013-02-19 01:23:00,
2013-02-18 19:25:00,53.1,8.1,28.70,SSE,155,10.5,13.2,16,0.00,,---,0.00,VWS V14.01,2013-02-19 01:25:00,
2013-02-18 19:27:00,53.1,8.1,28.70,SSE,155,10.5,10.5,16,0.00,,---,0.00,VWS V14.01,2013-02-19 01:27:00,
2013-02-18 19:28:00,53.1,8.1,28.70,SSE,155,10.5,10.5,16,0.00,,---,0.00,VWS V14.01,2013-02-19 01:28:00,
2013-02-18 19:31:00,53.1,8.1,28.70,SSE,168,11.0,11.0,16,0.00,,---,0.00,VWS V14.01,2013-02-19 01:31:00,
2013-02-18 19:32:00,53.1,8.1,28.70,South,179,10.5,10.5,16,0.00,,---,0.00,VWS V14.01,2013-02-19 01:32:00,
2013-02-18 19:33:00,53.1,8.1,28.70,SE,137,8.1,10.5,16,0.00,,---,0.00,VWS V14.01,2013-02-19 01:33:00,
2013-02-18 19:36:00,52.9,7.9,28.70,SSE,160,10.1,13.6,16,0.00,,---,0.00,VWS V14.01,2013-02-19 01:36:00,
2013-02-18 19:38:00,52.9,7.9,28.70,SE,139,6.3,6.3,16,0.00,,---,0.00,VWS V14.01,2013-02-19 01:38:00,
2013-02-18 19:41:00,52.7,7.8,28.70,South,177,11.0,11.0,16,0.00,,---,0.00,VWS V14.01,2013-02-19 01:41:00,
2013-02-18 19:43:00,52.7,7.8,28.70,South,169,17.4,17.4,16,0.00,,---,0.00,VWS V14.01,2013-02-19 01:43:00,
2013-02-18 19:44:00,52.7,7.8,28.70,SSE,157,13.2,13.2,16,0.00,,---,0.00,VWS V14.01,2013-02-19 01:44:00,
2013-02-18 19:46:00,52.7,7.8,28.70,SE,139,11.0,11.0,16,0.00,,---,0.00,VWS V14.01,2013-02-19 01:46:00,
2013-02-18 19:48:00,52.7,7.8,28.70,SE,139,11.0,11.0,16,0.00,,---,0.00,VWS V14.01,2013-02-19 01:48:00,
2013-02-18 19:49:00,52.7,7.8,28.70,SSE,156,8.3,11.0,16,0.00,,---,0.00,VWS V14.01,2013-02-19 01:49:00,
2013-02-18 19:51:00,52.5,7.6,28.70,SSE,156,8.3,8.3,16,0.00,,---,0.00,VWS V14.01,2013-02-19 01:51:00,
2013-02-18 19:53:00,52.5,7.6,28.70,ESE,116,11.0,11.0,16,0.00,,---,0.00,VWS V14.01,2013-02-19 01:53:00,
2013-02-18 19:54:00,52.5,7.6,28.70,South,170,14.5,14.5,16,0.00,,---,0.00,VWS V14.01,2013-02-19 01:54:00,
2013-02-18 19:56:00,52.5,7.6,28.70,SSE,165,15.4,15.4,16,0.00,,---,0.00,VWS V14.01,2013-02-19 01:56:00,
2013-02-18 19:58:00,52.3,7.5,28.70,South,185,13.2,13.2,16,0.00,,---,0.00,VWS V14.01,2013-02-19 01:58:00,
2013-02-18 19:59:00,52.3,7.5,28.70,SSE,162,12.8,13.2,16,0.00,,---,0.00,VWS V14.01,2013-02-19 01:59:00,
2013-02-18 20:01:00,52.2,7.3,28.70,SSE,152,10.1,10.1,16,0.00,,---,0.00,VWS V14.01,2013-02-19 02:01:00,
2013-02-18 20:03:00,52.2,7.3,28.70,SSE,152,10.1,10.1,16,0.00,,---,0.00,VWS V14.01,2013-02-19 02:03:00,
2013-02-18 20:04:00,52.2,7.3,28.70,SSE,161,12.8,13.2,16,0.00,,---,0.00,VWS V14.01,2013-02-19 02:04:00,
2013-02-18 20:06:00,52.2,7.3,28.70,SE,140,11.0,11.0,16,0.00,,---,0.00,VWS V14.01,2013-02-19 02:06:00,
2013-02-18 20:08:00,52.2,7.3,28.70,SSE,163,5.8,10.1,16,0.00,,---,0.00,VWS V14.01,2013-02-19 02:08:00,
2013-02-18 20:09:00,52.2,7.3,28.70,SSE,163,5.8,10.1,16,0.00,,---,0.00,VWS V14.01,2013-02-19 02:09:00,
2013-02-18 20:11:00,52.0,7.2,28.70,SSE,147,10.5,19.2,16,0.00,,---,0.00,VWS V14.01,2013-02-19 02:11:00,
2013-02-18 20:14:00,51.8,7.1,28.70,SSE,151,13.2,13.2,16,0.00,,---,0.00,VWS V14.01,2013-02-19 02:14:00,
2013-02-18 20:17:00,51.8,7.1,28.70,SE,138,10.1,10.1,16,0.00,,---,0.00,VWS V14.01,2013-02-19 02:17:00,
2013-02-18 20:19:00,51.6,6.9,28.70,South,181,8.3,8.3,16,0.00,,---,0.00,VWS V14.01,2013-02-19 02:19:00,
2013-02-18 20:22:00,51.4,6.8,28.70,South,172,8.7,8.7,16,0.00,,---,0.00,VWS V14.01,2013-02-19 02:22:00,
2013-02-18 20:24:00,51.4,6.8,28.70,SSW,211,8.3,8.3,16,0.00,,---,0.00,VWS V14.01,2013-02-19 02:24:00,
2013-02-18 20:27:00,51.3,6.6,28.70,SSE,156,11.9,11.9,16,0.00,,---,0.00,VWS V14.01,2013-02-19 02:27:00,
2013-02-18 20:29:00,51.3,6.6,28.70,SSE,166,13.2,13.2,16,0.00,,---,0.00,VWS V14.01,2013-02-19 02:29:00,
2013-02-18 20:32:00,51.1,6.5,28.70,SSE,152,16.3,16.3,16,0.00,,---,0.00,VWS V14.01,2013-02-19 02:32:00,
2013-02-18 20:34:00,51.1,6.5,28.70,SSE,152,16.3,16.3,16,0.00,,---,0.00,VWS V14.01,2013-02-19 02:34:00,
2013-02-18 20:37:00,50.9,6.3,28.70,South,177,8.1,8.1,16,0.00,,---,0.00,VWS V14.01,2013-02-19 02:37:00,
2013-02-18 20:39:00,50.9,6.3,28.70,SSE,155,4.0,4.0,16,0.00,,---,0.00,VWS V14.01,2013-02-19 02:39:00,
2013-02-18 20:42:00,50.7,6.2,28.70,SSE,155,4.0,4.0,16,0.00,,---,0.00,VWS V14.01,2013-02-19 02:42:00,
2013-02-18 20:44:00,50.7,6.2,28.70,SE,142,8.3,8.3,16,0.00,,---,0.00,VWS V14.01,2013-02-19 02:44:00,
2013-02-18 20:47:00,50.7,6.2,28.70,SSE,160,15.0,15.0,16,0.00,,---,0.00,VWS V14.01,2013-02-19 02:47:00,
2013-02-18 20:49:00,50.7,6.2,28.70,SSE,160,15.0,15.0,16,0.00,,---,0.00,VWS V14.01,2013-02-19 02:49:00,
2013-02-18 20:53:00,50.7,6.2,28.70,SSE,164,10.5,15.0,16,0.00,,---,0.00,VWS V14.01,2013-02-19 02:53:00,
2013-02-18 20:54:00,50.7,6.2,28.70,ESE,114,13.2,13.2,16,0.00,,---,0.00,VWS V14.01,2013-02-19 02:54:00,
2013-02-18 20:58:00,50.7,6.2,28.70,SE,128,6.7,15.4,16,0.00,,---,0.00,VWS V14.01,2013-02-19 02:58:00,
2013-02-18 20:59:00,50.7,6.2,28.70,SE,129,8.7,8.7,16,0.00,,---,0.00,VWS V14.01,2013-02-19 02:59:00,
2013-02-18 21:03:00,50.7,6.2,28.70,South,173,8.1,15.0,16,0.00,,---,0.00,VWS V14.01,2013-02-19 03:03:00,
2013-02-18 21:05:00,50.7,6.2,28.70,South,173,8.1,8.1,16,0.00,,---,0.00,VWS V14.01,2013-02-19 03:05:00,
2013-02-18 21:08:00,50.5,6.0,28.70,South,191,17.4,17.4,16,0.00,,---,0.00,VWS V14.01,2013-02-19 03:08:00,
2013-02-18 21:10:00,50.4,5.9,28.70,SSE,168,10.5,10.5,16,0.00,,---,0.00,VWS V14.01,2013-02-19 03:10:00,
2013-02-18 21:11:00,50.4,5.9,28.70,SSE,168,10.5,10.5,16,0.00,,---,0.00,VWS V14.01,2013-02-19 03:11:00,
2013-02-18 21:13:00,50.4,5.9,28.70,SE,132,9.2,9.2,16,0.00,,---,0.00,VWS V14.01,2013-02-19 03:13:00,
2013-02-18 21:15:00,50.4,5.9,28.70,South,176,11.4,11.4,16,0.00,,---,0.00,VWS V14.01,2013-02-19 03:15:00,
2013-02-18 21:16:00,50.4,5.9,28.70,South,176,11.4,11.4,16,0.00,,---,0.00,VWS V14.01,2013-02-19 03:16:00,
2013-02-18 21:19:00,50.4,5.9,28.70,SSE,166,17.4,17.4,16,0.00,,---,0.00,VWS V14.01,2013-02-19 03:19:00,
2013-02-18 21:20:00,50.5,6.0,28.70,SSE,160,9.6,10.5,16,0.00,,---,0.00,VWS V14.01,2013-02-19 03:20:00,
2013-02-18 21:21:00,50.5,6.0,28.70,SSE,160,9.6,9.6,16,0.00,,---,0.00,VWS V14.01,2013-02-19 03:21:00,
2013-02-18 21:24:00,50.5,6.0,28.70,SSW,204,10.5,10.5,16,0.00,,---,0.00,VWS V14.01,2013-02-19 03:24:00,
2013-02-18 21:25:00,50.5,6.0,28.70,South,190,10.5,10.5,16,0.00,,---,0.00,VWS V14.01,2013-02-19 03:25:00,
2013-02-18 21:26:00,50.5,6.0,28.70,South,190,10.5,10.5,16,0.00,,---,0.00,VWS V14.01,2013-02-19 03:26:00,
2013-02-18 21:29:00,50.5,6.0,28.70,South,169,17.9,17.9,16,0.00,,---,0.00,VWS V14.01,2013-02-19 03:29:00,
2013-02-18 21:30:00,50.4,5.9,28.70,SSE,165,8.3,8.3,16,0.00,,---,0.00,VWS V14.01,2013-02-19 03:30:00,
2013-02-18 21:31:00,50.4,5.9,28.70,SSE,165,8.3,8.3,16,0.00,,---,0.00,VWS V14.01,2013-02-19 03:31:00,
2013-02-18 21:34:00,50.5,6.0,28.70,SSE,162,27.1,27.1,16,0.00,,---,0.00,VWS V14.01,2013-02-19 03:34:00,
2013-02-18 21:35:00,50.5,6.0,28.70,SSE,162,8.1,27.1,16,0.00,,---,0.00,VWS V14.01,2013-02-19 03:35:00,
2013-02-18 21:36:00,50.5,6.0,28.70,SSE,162,8.1,8.1,16,0.00,,---,0.00,VWS V14.01,2013-02-19 03:36:00,
2013-02-18 21:39:00,50.4,5.9,28.70,SSE,147,13.2,15.0,16,0.00,,---,0.00,VWS V14.01,2013-02-19 03:39:00,
2013-02-18 21:40:00,50.4,5.9,28.70,East,91,12.3,12.8,16,0.00,,---,0.00,VWS V14.01,2013-02-19 03:40:00,
2013-02-18 21:41:00,50.4,5.9,28.70,East,91,12.3,12.3,16,0.00,,---,0.00,VWS V14.01,2013-02-19 03:41:00,
2013-02-18 21:44:00,50.4,5.9,28.70,SE,135,8.7,12.3,16,0.00,,---,0.00,VWS V14.01,2013-02-19 03:44:00,
2013-02-18 21:46:00,50.4,5.9,28.70,South,179,19.7,19.7,16,0.00,,---,0.00,VWS V14.01,2013-02-19 03:46:00,
2013-02-18 21:49:00,50.4,5.9,28.70,SSE,167,10.5,10.5,16,0.00,,---,0.00,VWS V14.01,2013-02-19 03:49:00,
2013-02-18 21:51:00,50.4,5.9,28.70,South,187,11.0,11.0,16,0.00,,---,0.00,VWS V14.01,2013-02-19 03:51:00,
2013-02-18 21:52:00,50.4,5.9,28.70,SSE,157,13.2,13.2,16,0.00,,---,0.00,VWS V14.01,2013-02-19 03:52:00,
2013-02-18 21:54:00,50.4,5.9,28.70,SSE,159,11.0,18.8,16,0.00,,---,0.00,VWS V14.01,2013-02-19 03:54:00,
2013-02-18 21:56:00,50.4,5.9,28.70,SSE,167,12.8,12.8,16,0.00,,---,0.00,VWS V14.01,2013-02-19 03:56:00,
2013-02-18 21:57:00,50.2,5.7,28.67,SSE,167,12.8,12.8,16,0.00,,---,0.00,VWS V14.01,2013-02-19 03:57:00,
2013-02-18 21:59:00,50.2,5.7,28.67,SSE,167,12.8,12.8,16,0.00,,---,0.00,VWS V14.01,2013-02-19 03:59:00,
2013-02-18 22:01:00,50.2,5.7,28.67,South,171,13.2,13.2,16,0.00,,---,0.00,VWS V14.01,2013-02-19 04:01:00,
2013-02-18 22:02:00,50.2,5.7,28.67,South,171,13.2,13.2,16,0.00,,---,0.00,VWS V14.01,2013-02-19 04:02:00,
2013-02-18 22:04:00,50.2,5.7,28.67,SSE,155,21.9,21.9,16,0.00,,---,0.00,VWS V14.01,2013-02-19 04:04:00,
2013-02-18 22:06:00,50.2,5.7,28.67,South,185,8.7,8.7,16,0.00,,---,0.00,VWS V14.01,2013-02-19 04:06:00,
2013-02-18 22:07:00,50.2,5.7,28.67,SSE,152,8.1,8.7,16,0.00,,---,0.00,VWS V14.01,2013-02-19 04:07:00,
2013-02-18 22:09:00,50.2,5.7,28.67,South,180,7.6,8.3,16,0.00,,---,0.00,VWS V14.01,2013-02-19 04:09:00,
2013-02-18 22:11:00,50.0,5.6,28.67,SSE,166,10.5,10.5,16,0.00,,---,0.00,VWS V14.01,2013-02-19 04:11:00,
2013-02-18 22:12:00,50.0,5.6,28.67,SSE,166,10.1,10.5,16,0.00,,---,0.00,VWS V14.01,2013-02-19 04:12:00,
2013-02-18 22:14:00,50.0,5.6,28.67,SSE,164,11.0,11.0,16,0.00,,---,0.00,VWS V14.01,2013-02-19 04:14:00,
2013-02-18 22:16:00,50.0,5.6,28.67,South,176,14.1,14.1,16,0.00,,---,0.00,VWS V14.01,2013-02-19 04:16:00,
2013-02-18 22:17:00,50.0,5.6,28.67,SSE,166,12.3,12.3,16,0.00,,---,0.00,VWS V14.01,2013-02-19 04:17:00,
2013-02-18 22:19:00,50.0,5.6,28.67,SSE,160,10.1,10.1,16,0.00,,---,0.00,VWS V14.01,2013-02-19 04:19:00,
2013-02-18 22:21:00,50.0,5.6,28.67,SSW,203,17.0,17.0,16,0.00,,---,0.00,VWS V14.01,2013-02-19 04:21:00,
2013-02-18 22:22:00,50.0,5.6,28.67,SSW,203,17.0,17.0,16,0.00,,---,0.00,VWS V14.01,2013-02-19 04:22:00,
2013-02-18 22:24:00,50.0,5.6,28.67,SW,217,22.8,22.8,16,0.00,,---,0.00,VWS V14.01,2013-02-19 04:24:00,
2013-02-18 22:27:00,50.0,5.6,28.67,SSE,151,7.6,8.3,16,0.00,,---,0.00,VWS V14.01,2013-02-19 04:27:00,
2013-02-18 22:29:00,50.0,5.6,28.67,SE,140,13.2,13.2,16,0.00,,---,0.00,VWS V14.01,2013-02-19 04:29:00,
2013-02-18 22:32:00,49.8,5.4,28.67,ESE,119,13.2,13.2,16,0.00,,---,0.00,VWS V14.01,2013-02-19 04:32:00,
2013-02-18 22:33:00,49.8,5.4,28.67,ESE,119,13.2,13.2,16,0.00,,---,0.00,VWS V14.01,2013-02-19 04:33:00,
2013-02-18 22:35:00,49.8,5.4,28.67,SSE,168,5.8,12.3,16,0.00,,---,0.00,VWS V14.01,2013-02-19 04:35:00,
2013-02-18 22:37:00,49.8,5.4,28.67,ESE,122,7.6,7.6,16,0.00,,---,0.00,VWS V14.01,2013-02-19 04:37:00,
2013-02-18 22:38:00,49.8,5.4,28.67,SE,146,15.0,15.0,16,0.00,,---,0.00,VWS V14.01,2013-02-19 04:38:00,
2013-02-18 22:40:00,49.6,5.3,28.67,SSE,159,8.1,11.0,16,0.00,,---,0.00,VWS V14.01,2013-02-19 04:40:00,
2013-02-18 22:42:00,49.8,5.4,28.67,SSE,166,16.3,16.3,16,0.00,,---,0.00,VWS V14.01,2013-02-19 04:42:00,
2013-02-18 22:43:00,49.8,5.4,28.64,SSE,166,16.3,16.3,16,0.00,,---,0.00,VWS V14.01,2013-02-19 04:43:00,
2013-02-18 22:45:00,49.8,5.4,28.64,SSE,151,17.0,17.0,16,0.00,,---,0.00,VWS V14.01,2013-02-19 04:45:00,
2013-02-18 22:47:00,49.8,5.4,28.64,SSE,162,13.2,13.2,16,0.00,,---,0.00,VWS V14.01,2013-02-19 04:47:00,
2013-02-18 22:48:00,49.8,5.4,28.64,South,170,17.4,17.4,16,0.00,,---,0.00,VWS V14.01,2013-02-19 04:48:00,
2013-02-18 22:50:00,49.8,5.4,28.64,SSE,162,10.1,10.1,16,0.00,,---,0.00,VWS V14.01,2013-02-19 04:50:00,
2013-02-18 22:52:00,49.8,5.4,28.64,South,169,8.3,10.1,16,0.00,,---,0.00,VWS V14.01,2013-02-19 04:52:00,
2013-02-18 22:53:00,49.6,5.3,28.64,SSE,162,11.0,11.0,16,0.00,,---,0.00,VWS V14.01,2013-02-19 04:53:00,
2013-02-18 22:55:00,49.6,5.3,28.64,SE,144,15.0,15.0,16,0.00,,---,0.00,VWS V14.01,2013-02-19 04:55:00,
2013-02-18 22:57:00,49.6,5.3,28.64,South,169,14.5,14.5,16,0.00,,---,0.00,VWS V14.01,2013-02-19 04:57:00,
2013-02-18 22:58:00,49.6,5.3,28.64,South,169,14.5,14.5,16,0.00,,---,0.00,VWS V14.01,2013-02-19 04:58:00,
2013-02-18 23:00:00,49.6,5.3,28.64,SE,143,15.4,15.4,16,0.00,,---,0.00,VWS V14.01,2013-02-19 05:00:00,
2013-02-18 23:01:00,49.6,5.3,28.64,South,171,14.5,14.5,16,0.00,,---,0.00,VWS V14.01,2013-02-19 05:01:00,
2013-02-18 23:02:00,49.6,5.3,28.64,South,171,14.5,14.5,16,0.00,,---,0.00,VWS V14.01,2013-02-19 05:02:00,
2013-02-18 23:03:00,49.6,5.3,28.64,SSE,165,11.0,14.5,16,0.00,,---,0.00,VWS V14.01,2013-02-19 05:03:00,
2013-02-18 23:04:00,49.6,5.3,28.64,South,172,10.5,11.0,16,0.00,,---,0.00,VWS V14.01,2013-02-19 05:04:00,
2013-02-18 23:05:00,49.6,5.3,28.64,SSE,147,6.3,10.5,16,0.00,,---,0.00,VWS V14.01,2013-02-19 05:05:00,
2013-02-18 23:06:00,49.6,5.3,28.64,SSE,147,6.3,6.3,16,0.00,,---,0.00,VWS V14.01,2013-02-19 05:06:00,
2013-02-18 23:07:00,49.6,5.3,28.64,SSE,163,12.8,12.8,16,0.00,,---,0.00,VWS V14.01,2013-02-19 05:07:00,
2013-02-18 23:08:00,49.6,5.3,28.64,SSE,147,10.1,14.1,16,0.00,,---,0.00,VWS V14.01,2013-02-19 05:08:00,
2013-02-18 23:09:00,49.6,5.3,28.64,SE,137,10.1,10.1,16,0.00,,---,0.00,VWS V14.01,2013-02-19 05:09:00,
2013-02-18 23:10:00,49.6,5.3,28.64,SE,137,10.1,10.1,16,0.00,,---,0.00,VWS V14.01,2013-02-19 05:10:00,
2013-02-18 23:11:00,49.6,5.3,28.64,SSE,164,11.0,11.0,16,0.00,,---,0.00,VWS V14.01,2013-02-19 05:11:00,
2013-02-18 23:12:00,49.6,5.3,28.64,SE,146,12.3,12.3,16,0.00,,---,0.00,VWS V14.01,2013-02-19 05:12:00,
2013-02-18 23:13:00,49.6,5.3,28.64,SE,137,8.1,12.3,16,0.00,,---,0.00,VWS V14.01,2013-02-19 05:13:00,
2013-02-18 23:14:00,49.6,5.3,28.64,South,170,12.8,13.2,16,0.00,,---,0.00,VWS V14.01,2013-02-19 05:14:00,
2013-02-18 23:15:00,49.6,5.3,28.64,South,170,12.8,12.8,16,0.00,,---,0.00,VWS V14.01,2013-02-19 05:15:00,
2013-02-18 23:16:00,49.6,5.3,28.64,South,171,11.9,12.8,16,0.00,,---,0.00,VWS V14.01,2013-02-19 05:16:00,
2013-02-18 23:17:00,49.5,5.2,28.64,SSE,157,9.2,9.2,16,0.00,,---,0.00,VWS V14.01,2013-02-19 05:17:00,
2013-02-18 23:18:00,49.5,5.2,28.64,SSE,157,9.2,9.2,16,0.00,,---,0.00,VWS V14.01,2013-02-19 05:18:00,
2013-02-18 23:19:00,49.5,5.2,28.64,SSE,167,8.7,9.2,16,0.00,,---,0.00,VWS V14.01,2013-02-19 05:19:00,
2013-02-18 23:20:00,49.5,5.2,28.64,South,176,11.0,11.0,16,0.00,,---,0.00,VWS V14.01,2013-02-19 05:20:00,
2013-02-18 23:21:00,49.5,5.2,28.64,South,176,13.2,13.2,16,0.00,,---,0.00,VWS V14.01,2013-02-19 05:21:00,
2013-02-18 23:22:00,49.5,5.2,28.64,SSE,150,8.1,13.2,16,0.00,,---,0.00,VWS V14.01,2013-02-19 05:22:00,
2013-02-18 23:23:00,49.5,5.2,28.64,SE,141,12.3,12.3,16,0.00,,---,0.00,VWS V14.01,2013-02-19 05:23:00,
2013-02-18 23:24:00,49.5,5.2,28.64,SE,138,14.5,14.5,16,0.00,,---,0.00,VWS V14.01,2013-02-19 05:24:00,
2013-02-18 23:25:00,49.5,5.2,28.64,SE,138,14.5,14.5,16,0.00,,---,0.00,VWS V14.01,2013-02-19 05:25:00,
2013-02-18 23:26:00,49.5,5.2,28.64,SE,138,14.5,14.5,16,0.00,,---,0.00,VWS V14.01,2013-02-19 05:26:00,
2013-02-18 23:27:00,49.5,5.2,28.64,South,176,12.8,12.8,16,0.00,,---,0.00,VWS V14.01,2013-02-19 05:27:00,
2013-02-18 23:28:00,49.5,5.2,28.64,SSE,162,5.8,12.8,16,0.00,,---,0.00,VWS V14.01,2013-02-19 05:28:00,
2013-02-18 23:29:00,49.5,5.2,28.64,South,170,10.1,15.0,16,0.00,,---,0.00,VWS V14.01,2013-02-19 05:29:00,
2013-02-18 23:30:00,49.5,5.2,28.64,South,177,6.3,6.3,16,0.00,,---,0.00,VWS V14.01,2013-02-19 05:30:00,
2013-02-18 23:31:00,49.5,5.2,28.64,South,177,6.3,6.3,16,0.00,,---,0.00,VWS V14.01,2013-02-19 05:31:00,
2013-02-18 23:32:00,49.5,5.2,28.64,SSE,165,10.5,10.5,16,0.00,,---,0.00,VWS V14.01,2013-02-19 05:32:00,
2013-02-18 23:33:00,49.5,5.2,28.64,South,181,18.8,18.8,16,0.00,,---,0.00,VWS V14.01,2013-02-19 05:33:00,
2013-02-18 23:34:00,49.5,5.2,28.64,SSE,152,11.0,18.8,16,0.00,,---,0.00,VWS V14.01,2013-02-19 05:34:00,
2013-02-18 23:35:00,49.5,5.2,28.64,SE,142,11.0,11.0,16,0.00,,---,0.00,VWS V14.01,2013-02-19 05:35:00,
2013-02-18 23:36:00,49.5,5.2,28.64,SSE,159,8.7,10.1,16,0.00,,---,0.00,VWS V14.01,2013-02-19 05:36:00,
2013-02-18 23:37:00,49.5,5.2,28.64,SE,129,8.3,8.3,16,0.00,,---,0.00,VWS V14.01,2013-02-19 05:37:00,
2013-02-18 23:38:00,49.5,5.2,28.64,SSW,203,13.2,13.2,16,0.00,,---,0.00,VWS V14.01,2013-02-19 05:38:00,
2013-02-18 23:39:00,49.5,5.2,28.64,SSE,164,12.8,13.2,16,0.00,,---,0.00,VWS V14.01,2013-02-19 05:39:00,
2013-02-18 23:40:00,49.6,5.3,28.64,South,172,13.2,13.2,16,0.00,,---,0.00,VWS V14.01,2013-02-19 05:40:00,
2013-02-18 23:41:00,49.6,5.3,28.64,SSE,149,7.6,13.2,16,0.00,,---,0.00,VWS V14.01,2013-02-19 05:41:00,
2013-02-18 23:42:00,49.5,5.2,28.64,SSE,161,15.0,15.0,16,0.00,,---,0.00,VWS V14.01,2013-02-19 05:42:00,
2013-02-18 23:43:00,49.5,5.2,28.64,SSE,161,15.0,15.0,16,0.00,,---,0.00,VWS V14.01,2013-02-19 05:43:00,
2013-02-18 23:44:00,49.5,5.2,28.64,SSE,152,11.0,15.0,16,0.00,,---,0.00,VWS V14.01,2013-02-19 05:44:00,
2013-02-18 23:45:00,49.5,5.2,28.64,South,177,11.4,15.4,16,0.00,,---,0.00,VWS V14.01,2013-02-19 05:45:00,
2013-02-18 23:46:00,49.5,5.2,28.64,South,177,11.4,15.4,16,0.00,,---,0.00,VWS V14.01,2013-02-19 05:46:00,
2013-02-18 23:47:00,49.5,5.2,28.64,North,11,12.3,12.3,16,0.00,,---,0.00,VWS V14.01,2013-02-19 05:47:00,
2013-02-18 23:48:00,49.5,5.2,28.64,ENE,73,12.8,12.8,16,0.00,,---,0.00,VWS V14.01,2013-02-19 05:48:00,
2013-02-18 23:49:00,49.5,5.2,28.64,SSE,163,7.2,12.8,16,0.00,,---,0.00,VWS V14.01,2013-02-19 05:49:00,
2013-02-18 23:50:00,49.5,5.2,28.64,SSW,199,10.5,10.5,16,0.00,,---,0.00,VWS V14.01,2013-02-19 05:50:00,
2013-02-18 23:51:00,49.5,5.2,28.64,SSW,193,7.6,10.5,16,0.00,,---,0.00,VWS V14.01,2013-02-19 05:51:00,
2013-02-18 23:52:00,49.5,5.2,28.64,SSE,161,15.0,15.0,16,0.00,,---,0.00,VWS V14.01,2013-02-19 05:52:00,
2013-02-18 23:53:00,49.5,5.2,28.64,West,265,17.9,17.9,16,0.00,,---,0.00,VWS V14.01,2013-02-19 05:53:00,
2013-02-18 23:54:00,49.5,5.2,28.61,West,265,17.9,17.9,16,0.00,,---,0.00,VWS V14.01,2013-02-19 05:54:00,
2013-02-18 23:55:00,49.5,5.2,28.61,SSE,159,8.7,17.9,16,0.00,,---,0.00,VWS V14.01,2013-02-19 05:55:00,
2013-02-18 23:56:00,49.5,5.2,28.61,SSE,159,8.7,8.7,16,0.00,,---,0.00,VWS V14.01,2013-02-19 05:56:00,
2013-02-18 23:57:00,49.5,5.2,28.61,SSE,159,8.7,8.7,16,0.00,,---,0.00,VWS V14.01,2013-02-19 05:57:00,
2013-02-18 23:58:00,49.5,5.2,28.61,SE,125,8.3,8.7,16,0.00,,---,0.00,VWS V14.01,2013-02-19 05:58:00,
2013-02-18 23:59:00,49.5,5.2,28.61,SE,125,8.3,8.3,16,0.00,,---,0.00,VWS V14.01,2013-02-19 05:59:00,